GFSCGP_925_thetae_000.txt.gz
Theta_e
318 318 318 317 316 315 316 316 316 315 314 314 315 316 316 316 315 315 315 315 315 316 314 311 308 307 305 304 303 303 303 303 302 303 303 303 303 303 304 303 302 303 302 302
319 319 316 315 315 315 316 317 317 315 315 314 316 316 316 314 314 314 315 315 315 314 313 310 309 307 306 305 304 304 303 303 303 303 303 303 303 302 302 302 303 303 302 302
318 317 314 315 316 316 317 317 316 316 316 316 315 317 317 315 315 314 314 314 313 313 313 311 309 308 307 306 305 304 304 303 302 302 302 302 301 301 302 302 302 303 303 303
316 316 315 316 316 315 318 314 314 315 316 318 314 318 318 316 316 315 315 315 314 313 311 310 309 308 307 307 306 305 304 303 302 302 302 302 302 302 302 301 302 302 302 302
317 315 315 316 315 313 316 314 315 314 315 315 316 317 319 317 316 315 315 314 314 313 311 311 309 308 307 307 306 305 303 303 302 302 302 302 302 301 301 301 301 301 301 301
314 313 314 314 314 312 312 316 317 314 316 320 317 317 319 317 316 316 315 315 314 313 312 311 308 306 307 306 306 305 304 303 302 302 301 301 301 301 301 300 300 299 299 299
314 315 314 313 316 314 316 319 325 324 324 323 316 317 319 318 316 315 315 314 313 313 313 312 311 308 306 306 305 304 303 303 302 301 301 301 301 300 299 298 298 297 297 296
319 318 313 313 315 316 314 316 321 328 323 322 318 319 319 316 315 314 313 313 313 313 314 312 310 308 307 306 305 304 302 302 302 300 300 299 298 297 297 295 295 294 294 293
320 319 315 312 314 314 317 320 314 317 313 317 319 318 317 317 316 315 315 315 315 314 313 312 310 307 306 306 305 304 303 301 300 299 298 297 296 295 294 294 293 293 292 292
317 321 316 315 313 313 315 314 320 319 328 326 320 320 320 318 318 316 316 316 314 314 314 313 312 310 308 307 305 303 302 300 299 297 296 296 295 293 293 293 292 292 292 291
315 317 320 318 319 320 319 319 315 315 318 325 326 322 319 318 318 317 316 315 315 315 314 313 312 310 309 305 302 300 299 299 297 296 295 294 294 293 292 292 292 291 291 290
316 319 321 320 318 313 316 318 316 321 322 321 320 321 318 318 317 315 315 316 315 315 314 313 312 310 307 302 300 299 298 297 296 295 294 293 293 292 292 292 291 290 290 289
317 319 322 321 316 314 316 315 315 317 318 321 324 323 318 317 317 318 317 316 315 314 313 312 313 309 304 301 299 298 297 296 295 294 293 293 292 292 292 291 290 290 289 289
315 319 321 323 321 319 320 319 318 319 322 322 323 322 321 319 318 318 317 315 314 313 311 312 312 308 302 299 298 297 296 295 295 294 293 293 292 292 291 290 290 289 288 287
318 320 319 319 318 317 317 318 318 319 319 321 321 320 319 318 317 317 315 314 312 310 312 312 309 306 301 298 297 296 296 295 294 294 293 293 292 291 290 289 289 288 287 286
316 319 316 317 317 317 318 317 317 317 318 318 319 321 319 317 316 315 313 313 310 310 312 309 306 302 299 297 296 297 296 297 295 294 293 292 291 290 289 288 288 286 286 285
318 318 319 321 317 316 319 318 317 318 317 318 320 319 316 315 314 312 310 310 311 311 307 308 303 300 297 296 298 299 299 296 294 293 292 291 290 289 288 287 286 285 285 285
318 315 317 320 320 323 318 315 315 315 314 314 315 315 314 313 312 312 312 311 310 304 305 306 301 297 297 299 299 298 295 294 293 292 291 290 289 288 287 286 285 284 284 284
316 317 321 322 322 319 316 316 315 314 314 313 314 313 312 312 312 312 311 306 302 300 303 300 298 298 299 300 299 296 294 293 291 291 290 289 288 287 285 285 284 283 283 284
310 313 317 322 322 322 318 315 309 309 316 312 311 313 313 311 314 315 312 306 304 304 305 300 299 300 299 299 297 293 293 292 291 290 288 287 287 285 284 283 283 283 283 284
316 314 315 317 318 319 315 310 309 317 319 312 314 314 314 315 314 312 306 305 304 304 304 299 297 297 298 297 293 292 292 291 289 287 287 287 285 284 283 282 283 283 283 283
319 319 317 318 320 321 313 308 315 315 317 315 315 315 315 313 311 307 304 304 304 303 297 296 298 298 297 297 293 292 291 288 287 287 286 285 284 283 282 282 282 283 283 283
317 317 321 317 319 317 314 313 313 316 315 315 314 314 312 311 310 305 304 304 304 297 297 298 298 297 297 292 291 291 289 287 287 286 286 285 283 282 282 282 282 283 283 282
314 314 315 316 315 315 314 315 315 315 314 313 313 312 310 308 305 303 304 305 298 297 299 297 297 295 293 291 289 289 287 286 286 286 285 284 282 281 281 281 282 282 282 282
314 312 313 315 315 315 314 314 314 313 313 313 310 310 308 305 304 304 304 300 296 297 297 296 294 293 291 290 288 287 286 285 286 284 283 282 281 281 281 281 282 281 281 281
312 313 314 317 315 316 316 313 312 312 312 311 310 309 306 306 305 303 300 295 296 297 296 295 293 291 290 289 288 287 285 284 284 284 283 281 280 281 281 282 282 282 281 280

GFSCGP_925_thetae_003.txt.gz
Theta_e
319 322 320 319 319 318 319 319 321 320 318 318 319 320 319 319 317 317 317 317 317 317 317 316 315 313 311 311 309 308 308 307 306 306 306 306 307 307 307 306 306 306 305 304
322 322 318 318 318 318 320 321 321 320 319 320 320 320 319 317 317 316 316 317 317 317 317 316 315 313 312 311 310 308 308 307 306 306 306 306 307 306 306 306 306 306 305 305
319 320 317 317 318 318 320 320 319 320 320 321 320 321 320 317 318 316 317 317 316 315 315 315 314 313 313 312 311 309 308 307 307 306 306 305 305 305 305 305 305 306 306 305
319 318 317 318 318 318 320 318 319 320 321 322 320 320 320 319 318 317 317 318 317 316 316 314 314 314 313 312 311 310 309 308 307 306 305 305 305 305 305 305 304 304 304 305
320 316 316 318 317 317 319 318 320 321 321 321 320 320 321 319 318 318 317 317 317 316 316 315 315 314 313 312 311 311 310 308 307 306 305 304 304 305 304 304 304 304 304 303
315 314 317 316 317 317 317 321 323 322 321 325 324 319 320 321 318 317 317 317 316 316 316 315 314 314 312 312 312 311 310 309 307 306 305 304 304 304 304 303 303 303 301 301
318 317 316 316 319 320 321 322 328 328 327 327 320 320 321 320 318 317 316 316 316 316 316 316 315 314 313 311 311 311 310 309 308 306 305 304 304 304 303 303 301 300 299 298
322 323 317 317 318 320 321 320 326 329 326 325 321 321 321 319 317 316 316 316 316 317 316 316 315 314 313 312 311 311 310 309 307 306 305 304 303 303 302 300 299 297 297 297
323 322 320 316 317 318 322 325 320 322 322 323 322 321 320 321 318 317 317 317 318 317 316 317 316 314 313 312 311 311 311 310 308 306 305 304 302 301 299 298 297 296 296 295
321 323 320 319 319 318 320 319 324 324 333 329 324 323 323 321 321 319 318 318 317 317 317 316 315 314 313 312 312 311 310 309 308 305 303 301 299 298 296 296 295 295 294 294
320 321 323 321 322 323 322 324 320 320 322 329 328 324 322 321 321 321 319 318 318 317 316 315 315 313 313 313 311 309 308 307 305 303 301 298 297 296 295 295 294 294 294 293
320 321 324 323 321 317 318 321 322 325 325 325 328 326 321 321 320 318 319 319 318 316 316 315 314 313 313 312 309 307 305 303 302 300 298 296 296 295 294 294 294 293 293 292
320 322 325 323 321 319 322 321 321 321 323 325 327 326 321 320 321 319 319 318 317 316 315 314 313 314 312 310 307 305 303 302 300 298 297 295 295 295 295 294 293 293 292 292
316 320 323 325 323 322 322 321 321 322 327 327 327 325 321 320 320 319 318 317 316 315 314 313 313 313 311 309 306 303 302 300 298 297 296 296 296 295 294 293 293 292 292 291
320 323 321 321 320 319 320 320 320 320 322 324 324 322 321 319 319 318 316 316 314 314 314 313 312 311 311 307 304 302 300 298 297 297 297 297 295 295 294 293 292 292 291 290
318 322 319 320 318 319 320 319 318 318 319 320 320 321 319 318 317 316 315 314 315 314 313 312 310 310 309 304 302 301 298 298 298 299 298 296 295 294 293 292 291 290 289 288
322 320 320 320 319 318 321 320 320 320 319 319 321 320 316 316 315 315 315 315 314 314 313 310 309 309 307 302 300 299 299 300 300 297 296 295 293 292 292 291 290 289 288 288
321 319 316 320 323 324 319 317 317 317 317 317 316 316 315 315 315 315 314 313 312 311 309 307 308 308 303 300 300 300 300 299 297 297 295 293 292 291 291 290 289 288 287 287
319 319 319 325 322 319 317 317 317 317 316 315 315 315 316 315 315 315 314 311 310 308 306 308 306 306 300 300 301 301 299 297 296 294 293 292 291 291 290 288 288 287 286 286
315 319 317 323 323 322 317 316 314 314 318 316 315 316 316 316 317 316 312 311 307 305 307 306 305 300 300 299 299 299 297 295 295 293 292 291 290 289 288 287 287 286 286 285
318 316 318 318 319 318 316 316 313 319 319 317 316 315 315 315 314 313 311 307 305 306 305 303 299 298 300 299 298 296 295 295 293 291 291 290 289 288 287 286 286 285 285 285
319 320 319 319 321 323 315 315 318 318 318 317 316 315 314 314 312 311 306 304 306 305 304 299 299 300 299 298 297 296 295 292 290 290 290 289 288 288 286 285 285 285 284 285
317 318 322 319 320 319 319 317 317 317 317 315 315 314 312 312 312 310 306 306 305 304 300 299 299 299 298 296 294 293 292 290 290 290 289 288 288 287 285 284 284 284 284 284
315 315 319 319 316 317 315 316 317 315 313 313 313 312 312 312 311 309 308 305 304 299 298 300 299 297 296 294 291 291 290 289 289 289 288 287 287 285 284 284 284 284 283 283
314 314 315 317 317 315 315 315 314 313 312 312 312 311 311 310 309 308 306 304 299 297 299 298 297 296 294 293 291 290 289 288 288 288 287 287 285 284 284 284 283 283 283 283
313 315 315 315 315 317 316 313 311 312 311 311 310 307 306 307 307 305 303 299 296 297 298 297 296 294 293 292 290 290 289 288 287 287 287 285 283 283 284 283 283 283 282 282

GFSCGP_925_thetae_006.txt.gz
Theta_e
319 323 320 318 319 319 319 320 321 321 320 320 320 321 320 319 318 318 318 319 319 318 318 317 317 316 314 313 313 311 310 310 309 308 308 308 308 308 308 308 307 307 307 306
320 323 318 318 319 318 318 320 321 320 320 321 321 321 320 318 318 317 317 318 318 318 318 318 317 316 314 314 313 311 310 310 309 308 308 307 308 308 308 307 307 306 306 305
318 320 317 318 318 318 318 321 320 320 321 322 321 321 321 318 317 317 318 318 317 317 316 316 316 315 315 314 314 313 311 310 309 308 308 308 307 307 306 306 306 306 306 306
319 318 317 318 319 318 319 320 320 321 322 323 322 321 320 319 318 318 318 319 318 318 317 316 315 315 315 314 314 313 313 311 310 309 308 307 307 306 306 305 305 305 306 306
322 318 315 318 318 318 319 319 321 323 324 323 323 320 320 319 318 318 319 319 319 318 317 317 316 315 314 313 314 313 313 312 311 310 309 307 307 306 306 305 305 305 304 304
316 316 317 316 317 319 319 322 323 325 323 331 325 323 322 320 320 318 318 318 318 318 317 316 316 315 315 314 312 312 312 312 312 311 309 308 306 306 306 305 305 304 303 302
321 319 317 317 319 321 321 323 332 335 336 333 323 322 323 322 320 318 318 317 318 317 317 317 316 316 315 314 313 313 312 312 312 311 311 308 307 305 305 305 304 302 302 300
324 325 318 319 319 320 321 322 332 331 329 327 322 322 321 320 319 318 317 317 317 318 318 317 318 317 315 314 314 313 312 312 312 311 311 310 307 306 305 304 303 300 298 298
325 324 320 319 318 319 321 324 321 324 324 328 324 323 323 322 320 319 319 319 319 318 318 318 317 316 315 314 314 313 313 313 312 311 311 309 307 305 304 302 300 298 297 296
322 324 322 321 321 321 320 321 325 328 333 328 323 324 324 324 323 322 321 321 320 320 318 317 316 315 314 314 314 313 313 311 310 309 309 307 305 303 301 298 297 296 296 295
322 323 324 322 324 323 321 323 324 323 326 330 330 325 322 322 322 323 321 320 319 319 318 317 316 314 313 313 312 311 310 308 307 306 305 303 301 300 298 296 296 295 295 294
322 322 326 324 322 320 319 322 322 328 327 326 326 326 321 322 322 321 321 319 319 318 316 315 314 313 313 313 312 312 309 306 305 304 302 300 299 297 296 295 295 295 294 294
320 324 325 323 323 320 322 321 321 322 323 325 328 326 321 321 322 321 320 318 317 316 315 314 314 313 312 311 311 311 307 305 303 301 299 298 297 296 295 296 295 295 294 293
317 320 323 326 324 322 323 321 320 322 324 324 324 323 321 321 320 319 318 316 315 315 315 314 313 312 311 311 310 309 305 303 301 299 298 297 296 295 296 295 294 294 293 293
320 324 321 321 320 320 320 320 320 321 320 321 321 321 320 319 318 317 316 316 315 315 314 313 312 311 310 310 309 305 303 302 300 299 297 297 298 297 296 295 294 293 292 292
321 322 320 320 320 319 319 319 320 319 318 319 320 320 318 317 316 316 316 316 315 314 313 312 311 309 309 309 308 302 301 300 299 298 300 299 298 296 295 294 293 292 292 291
322 321 318 321 318 317 320 318 319 319 318 319 319 318 317 316 316 316 316 315 314 313 312 311 309 308 308 307 303 301 301 301 301 300 298 297 296 295 293 292 292 292 290 289
320 316 315 319 316 322 318 317 316 318 318 317 316 316 316 316 317 315 315 313 312 311 310 309 308 308 307 303 301 301 302 301 298 297 297 297 294 293 292 292 291 289 289 288
318 316 321 321 322 319 317 316 317 317 317 316 317 317 317 316 316 314 313 312 311 309 308 307 307 306 303 301 301 300 300 299 298 297 295 294 293 292 292 290 289 288 287 287
316 315 324 325 322 321 318 315 315 316 318 318 317 317 317 315 316 314 312 311 310 308 307 306 305 303 301 300 300 300 300 299 296 295 294 292 292 291 290 289 288 287 287 286
320 316 318 320 320 318 316 316 316 320 320 316 316 316 315 315 314 312 311 311 309 307 305 305 302 301 300 300 300 298 296 296 295 292 291 291 291 290 289 288 287 286 286 285
317 319 318 316 319 321 316 318 318 317 317 316 315 314 314 313 312 312 311 309 308 306 305 302 301 300 300 299 299 297 295 292 291 291 291 290 289 289 288 287 285 285 285 285
316 316 318 317 318 316 316 316 316 314 316 315 314 313 312 311 311 310 310 308 307 304 301 300 300 300 299 298 295 294 292 291 290 290 290 289 288 288 287 285 285 285 285 284
315 314 316 315 314 315 315 315 314 314 313 312 312 311 310 310 307 307 308 308 304 301 299 299 299 298 297 295 293 291 290 290 290 289 288 288 288 287 285 285 285 284 284 283
314 314 314 313 314 314 314 314 314 313 312 311 310 309 305 305 304 305 306 304 301 297 298 298 298 297 296 294 292 291 290 289 288 288 288 288 287 285 284 285 284 284 283 282
313 313 314 315 314 314 314 314 313 311 311 308 307 304 304 303 305 304 303 300 297 297 298 298 297 295 294 293 292 291 290 288 287 286 287 286 284 284 285 284 284 283 282 282

GFSCGP_925_thetae_009.txt.gz
Theta_e
317 316 315 316 317 317 316 315 317 317 317 316 316 315 315 315 311 311 311 311 311 312 313 315 315 315 314 314 313 312 311 310 310 309 308 308 309 309 309 309 308 310 308 307
315 318 316 316 316 317 316 318 318 318 318 318 317 317 315 313 313 312 312 312 312 311 311 314 315 314 314 313 313 312 312 310 310 309 308 308 307 307 307 308 308 308 307 307
316 317 316 316 317 317 315 319 318 318 318 318 318 317 315 314 313 314 313 312 312 311 312 312 313 315 314 314 314 313 312 311 310 309 309 308 307 307 308 307 308 307 306 306
317 317 315 316 318 316 316 318 319 319 320 321 319 319 316 314 314 314 314 312 311 312 312 312 313 313 314 314 314 314 313 312 312 310 309 308 308 307 307 307 306 306 306 306
319 314 313 317 316 315 317 318 318 320 320 321 320 317 315 314 315 314 313 313 312 311 311 312 313 314 314 313 313 314 314 313 313 312 311 309 308 308 307 307 306 306 305 306
314 315 315 315 316 317 318 320 320 323 320 322 321 319 317 318 316 315 314 314 313 312 312 312 315 315 314 314 313 312 312 312 312 312 312 311 310 308 307 306 306 305 304 304
320 316 315 317 318 318 317 320 321 322 322 323 319 320 318 318 316 315 314 313 313 312 312 313 314 313 314 314 313 313 313 313 312 312 312 312 311 310 308 307 306 305 303 300
323 322 318 318 318 319 318 320 319 325 324 322 320 322 319 317 315 315 315 313 313 314 313 313 314 314 313 314 314 314 313 313 313 313 312 311 311 311 310 307 305 304 300 298
323 323 319 318 317 317 319 321 320 320 319 319 321 320 318 318 319 318 317 316 316 316 315 315 313 313 313 313 313 311 311 311 310 310 309 308 308 309 307 305 302 298 297 296
321 323 321 321 319 318 319 319 320 317 323 326 322 321 320 320 319 318 317 316 316 316 314 312 311 312 312 312 312 311 311 310 310 307 307 306 305 304 302 299 297 296 295 296
320 320 321 320 323 322 319 319 321 323 321 327 326 323 319 320 318 318 318 317 315 314 311 310 311 312 312 311 311 310 309 309 309 306 305 304 302 301 298 297 296 297 296 296
318 319 317 321 319 319 317 321 321 322 326 318 320 324 318 317 317 318 317 315 313 312 311 310 310 311 311 311 310 309 309 309 305 304 302 300 299 298 296 296 295 295 295 294
318 315 316 319 319 318 320 319 319 319 313 320 318 321 317 317 317 315 313 312 312 312 311 310 310 310 309 309 309 309 308 305 303 301 299 298 297 296 295 295 295 295 294 294
316 318 317 319 320 320 320 319 318 318 312 318 318 318 316 316 315 314 313 312 311 311 311 310 309 309 308 307 307 308 305 302 302 299 298 297 297 296 296 296 295 295 294 294
318 317 319 319 319 319 319 318 318 318 317 318 318 317 316 314 314 314 313 313 313 312 311 310 310 308 307 307 307 305 300 300 300 298 297 298 298 297 296 296 294 294 293 292
319 316 319 319 319 320 318 316 316 316 316 317 317 316 314 312 314 314 313 313 312 312 311 310 309 308 308 307 306 302 301 301 300 300 298 297 297 296 296 295 294 293 292 292
316 313 311 322 317 315 312 313 315 316 314 315 315 315 315 315 315 315 313 312 312 311 310 309 308 307 306 305 301 301 301 302 300 298 297 297 297 295 295 294 292 292 291 289
311 308 310 320 312 320 314 314 313 314 314 314 316 315 315 315 315 313 312 311 310 309 309 307 306 305 303 302 302 301 300 301 298 298 297 296 296 295 293 292 291 290 288 288
315 308 314 317 316 316 315 315 315 313 314 317 316 316 315 314 313 312 312 311 309 309 307 306 306 303 302 301 300 300 299 299 299 296 297 295 292 292 291 290 289 288 287 287
312 309 312 311 313 314 311 313 315 315 317 315 316 316 315 313 312 311 310 310 309 308 307 306 303 301 300 300 300 299 299 298 298 292 291 291 291 291 289 288 288 287 286 285
307 308 311 306 313 311 311 313 316 314 317 314 315 314 314 314 312 311 309 308 308 307 306 302 301 300 300 299 299 298 295 293 292 291 291 291 290 289 288 288 287 285 285 285
309 308 313 307 317 313 313 312 311 312 312 312 312 312 311 311 310 308 306 306 306 305 301 300 299 299 299 299 298 297 291 291 291 290 290 289 288 288 287 286 285 285 285 284
313 311 309 310 309 310 311 310 310 311 311 312 311 310 309 308 307 303 302 304 303 299 298 298 298 299 297 297 293 293 291 290 290 289 289 288 288 287 286 285 284 284 284 283
313 312 310 310 312 311 311 310 310 310 311 310 309 308 306 307 303 301 302 300 298 298 297 297 299 298 297 296 292 291 290 290 289 288 288 287 287 286 284 284 284 284 282 282
312 311 312 312 311 311 310 309 310 310 311 308 305 305 303 303 302 300 299 299 297 296 296 298 298 297 296 293 291 291 290 289 288 287 286 286 285 284 284 284 283 283 282 282
312 313 312 313 311 311 311 309 308 309 306 305 305 301 302 301 300 299 298 297 297 296 297 296 295 293 292 291 291 290 289 288 287 285 284 284 283 284 283 283 282 282 282 282

GFSCGP_925_thetae_012.txt.gz
Theta_e
315 313 314 314 314 316 315 315 316 316 315 316 315 314 314 312 309 309 309 309 310 312 312 311 313 314 314 313 313 313 312 311 310 310 310 310 309 309 309 309 308 311 311 309
315 315 315 314 315 315 314 318 317 315 316 317 316 316 311 310 310 310 309 309 309 310 310 311 312 314 314 313 313 313 312 312 311 310 310 309 309 308 308 307 308 310 309 309
316 316 315 315 315 315 314 318 317 317 316 316 317 317 313 313 313 312 311 309 309 309 310 311 312 313 313 313 313 314 313 313 312 312 310 309 308 308 307 307 307 307 308 309
316 315 313 315 315 314 315 315 317 317 318 319 317 321 316 313 313 313 312 310 309 309 310 310 311 312 313 314 313 313 313 313 312 311 310 309 309 307 308 307 307 307 307 308
317 313 312 315 314 314 315 315 317 319 318 319 318 317 315 314 314 314 311 310 310 310 309 310 311 313 314 313 313 313 313 313 313 312 312 311 309 309 309 308 307 307 306 306
314 313 313 314 315 317 316 318 318 319 318 320 319 317 316 315 314 314 313 312 311 310 310 311 313 313 313 313 312 312 312 312 312 312 312 311 311 311 309 309 308 307 305 305
318 315 314 316 317 316 315 318 319 320 320 321 319 319 316 315 314 314 313 313 312 310 309 309 311 311 312 313 313 312 312 312 311 311 310 310 311 311 310 310 308 306 304 303
323 322 318 317 317 318 318 319 317 324 323 321 318 320 318 315 315 314 312 311 311 311 309 311 311 311 312 312 312 311 311 311 310 309 309 309 309 309 308 308 309 306 303 299
321 321 318 318 317 317 319 320 318 318 316 317 318 318 316 314 316 317 316 314 312 312 309 309 311 311 311 311 311 310 310 309 309 308 309 307 307 306 306 307 306 303 298 296
319 322 320 320 319 317 318 317 319 315 317 326 321 319 319 318 318 317 316 313 311 310 310 309 309 310 311 311 311 310 309 308 308 308 305 305 305 305 304 302 299 296 296 296
317 318 319 317 321 321 317 319 319 320 317 321 324 321 315 318 317 315 314 312 311 310 309 308 309 310 310 310 310 309 308 308 307 303 303 304 302 301 300 298 296 296 296 298
317 315 316 319 316 317 318 319 318 315 322 316 319 321 316 315 314 314 312 312 311 309 309 308 309 309 309 309 308 307 307 307 303 303 302 302 299 297 297 296 296 295 295 296
316 313 314 315 314 316 319 318 317 316 311 316 313 315 314 314 314 312 311 311 310 311 310 308 308 309 309 308 307 307 306 302 302 302 301 299 297 296 295 295 295 295 295 294
314 316 315 315 315 318 319 318 316 316 311 317 318 317 315 314 314 313 312 311 310 311 310 309 307 308 308 307 307 306 303 301 302 299 297 296 296 295 295 295 295 295 294 293
315 315 316 316 317 318 319 319 318 318 316 316 316 316 314 315 314 313 312 312 312 311 310 308 307 307 307 307 306 305 301 301 301 300 297 296 297 296 295 294 294 295 296 293
315 314 317 317 317 317 319 318 316 316 315 315 314 314 315 313 312 313 312 312 312 310 310 309 308 307 307 306 304 302 301 301 301 301 299 297 297 296 296 295 294 295 294 292
314 310 310 318 313 314 317 314 314 313 313 312 313 313 314 314 314 313 312 311 311 310 309 307 307 307 306 304 302 301 300 300 299 298 298 298 297 295 294 294 294 293 291 289
309 306 307 315 313 319 315 312 312 312 312 312 315 315 314 313 313 312 311 310 310 309 308 307 307 306 304 302 300 300 299 299 299 298 297 296 296 296 295 293 290 289 288 287
312 309 311 312 316 315 314 313 314 315 314 314 315 314 313 313 312 310 309 309 309 308 307 307 307 304 302 300 300 300 299 298 299 298 296 293 292 291 290 289 288 287 287 285
309 306 305 312 316 316 309 310 314 315 313 314 313 312 312 312 314 312 308 305 305 306 307 306 302 300 300 299 299 298 296 294 293 291 292 292 290 289 288 288 287 285 285 284
306 308 305 301 309 306 308 310 311 306 310 311 311 311 310 313 311 309 305 303 305 304 302 300 299 298 299 299 298 297 291 291 291 291 290 289 288 288 287 286 285 285 284 284
308 307 311 306 311 313 310 311 312 309 308 309 309 310 309 308 306 305 303 301 302 299 299 298 297 298 298 297 297 294 291 291 290 290 289 288 287 287 286 285 284 284 284 283
313 310 308 308 308 307 309 310 308 309 309 308 310 309 306 305 305 303 301 301 299 298 297 296 296 298 297 297 295 292 291 290 290 288 288 287 287 286 285 284 284 283 282 281
310 310 307 310 310 309 309 309 309 308 309 308 306 305 305 304 302 301 299 297 296 296 296 296 297 297 296 295 291 291 290 289 289 288 286 286 285 284 284 284 283 282 281 282
312 312 312 312 311 310 310 308 309 310 306 305 304 304 302 302 300 299 297 296 295 296 296 295 293 293 292 291 290 290 289 288 288 286 285 285 283 283 283 282 282 282 282 282
311 312 312 314 311 311 311 309 308 305 304 304 301 301 301 299 297 297 295 296 297 296 293 294 293 292 292 292 289 289 288 288 287 286 284 284 283 283 282 282 282 282 281 280

GFSCGP_925_thetae_018.txt.gz
Theta_e
312 311 312 312 312 312 313 314 315 313 313 315 314 313 310 306 306 306 304 305 307 310 309 309 309 311 313 314 314 316 316 315 314 314 314 311 311 311 310 310 310 309 309 309
313 313 313 311 312 313 314 315 313 313 313 315 314 314 309 308 308 307 307 307 309 309 309 308 309 311 312 313 315 315 314 313 312 313 312 310 309 309 309 310 310 309 309 308
314 314 312 313 312 314 313 314 314 315 313 314 313 314 311 310 309 308 307 307 309 309 310 309 310 311 313 314 314 314 313 312 310 309 308 308 308 308 308 309 309 310 308 307
314 310 312 313 314 313 316 313 314 314 316 318 313 317 314 310 310 309 309 307 306 307 309 309 309 310 311 311 311 311 310 310 310 309 309 309 309 308 309 309 309 309 309 309
315 311 313 315 314 313 315 314 315 316 316 316 315 313 312 310 312 312 309 309 309 308 306 305 307 308 309 309 309 310 310 310 310 309 309 308 308 308 307 307 306 307 307 307
315 311 313 314 314 315 314 316 314 314 314 318 317 315 314 313 313 312 311 311 310 307 306 306 308 308 309 310 310 311 311 310 310 309 308 307 306 305 304 304 304 305 305 305
316 316 315 314 317 315 314 314 315 318 318 320 316 315 315 314 311 312 312 311 308 306 304 305 305 308 309 310 310 310 310 309 308 306 307 306 304 305 305 304 304 304 304 304
319 316 317 316 316 317 316 316 314 316 320 319 315 318 316 314 312 313 311 308 307 306 305 305 306 308 309 309 309 309 308 308 307 306 307 305 304 304 302 302 302 303 303 301
319 318 316 317 316 315 318 317 315 315 314 315 316 316 314 312 312 311 310 308 307 306 306 306 307 309 310 310 309 309 308 307 306 306 305 303 303 303 301 301 302 302 300 298
318 321 317 316 316 315 316 314 317 313 314 322 318 318 317 314 313 311 310 309 308 307 307 307 309 310 309 309 308 308 307 306 305 305 302 303 303 302 301 300 300 299 298 296
315 315 315 313 315 316 316 317 315 315 315 316 319 318 313 313 312 312 311 310 309 307 307 306 308 309 309 309 308 307 306 305 305 303 303 303 301 300 299 298 297 297 296 297
315 312 313 316 314 314 315 316 314 312 316 313 312 315 311 311 311 311 312 310 309 308 307 306 308 309 308 308 308 308 306 305 304 302 302 300 300 299 296 295 295 295 296 295
314 312 311 309 313 312 316 316 314 310 308 317 317 313 309 309 311 311 311 309 309 309 308 307 309 308 309 308 307 308 306 305 302 301 300 299 299 297 294 294 294 294 294 294
313 312 312 311 310 311 315 316 314 314 315 315 315 314 313 312 310 311 310 309 308 308 310 309 306 307 308 307 306 307 306 303 301 300 299 299 296 293 293 294 294 294 294 294
312 316 313 312 312 313 315 315 315 315 314 317 315 314 313 311 312 311 310 309 310 310 308 306 307 306 305 305 305 306 304 301 300 299 298 297 295 295 294 294 294 293 293 292
311 311 314 313 312 312 313 313 314 314 314 314 315 314 309 312 310 310 310 310 309 307 306 305 303 301 302 304 304 301 300 300 299 298 297 297 297 296 295 293 293 293 293 294
312 309 308 308 310 309 307 309 312 313 312 311 312 310 311 312 310 308 308 307 306 306 304 302 301 303 303 300 299 299 298 299 298 298 298 297 296 296 295 294 294 293 290 287
307 304 306 307 307 312 311 310 310 311 310 308 308 310 311 310 308 307 305 305 304 303 301 300 302 299 298 296 296 297 298 296 295 295 294 293 293 292 291 290 288 287 287 286
307 305 309 315 313 311 313 310 311 311 310 310 310 312 309 307 306 307 304 302 302 300 300 300 297 296 295 296 297 297 296 293 293 294 293 291 290 289 288 288 287 286 285 284
305 301 304 310 314 314 309 307 312 311 312 309 312 311 309 308 311 310 304 302 300 301 300 298 296 295 295 296 297 297 295 291 293 290 289 288 288 288 287 286 285 284 284 283
304 307 313 312 314 312 307 306 307 309 311 309 311 309 309 309 308 304 302 302 301 299 297 296 295 294 295 296 296 296 295 293 290 290 291 288 287 286 285 285 284 283 283 282
307 305 304 305 309 309 305 309 311 308 307 308 307 306 308 305 302 301 301 301 299 296 295 295 295 295 295 291 292 291 290 289 291 290 288 287 286 285 284 283 283 282 282 281
310 309 309 309 307 306 306 309 307 307 308 306 307 305 303 300 301 300 299 299 297 295 294 295 295 293 291 292 291 291 292 291 289 287 287 285 285 284 283 282 282 282 282 281
309 308 308 310 310 308 310 309 308 307 307 306 305 301 300 300 299 298 298 297 295 294 294 295 294 293 292 292 292 291 290 288 287 286 285 284 284 283 283 282 281 281 281 280
310 311 311 311 312 311 309 308 308 307 303 301 301 300 300 299 298 298 298 295 294 294 294 295 293 293 292 291 290 289 288 287 286 285 285 284 284 284 283 282 281 281 281 280
311 312 313 313 311 311 311 306 303 300 298 297 299 299 299 299 297 297 295 295 294 294 294 294 293 292 291 289 289 288 287 286 286 285 284 284 284 284 282 282 281 281 280 279

GFSCGP_925_thetae_021.txt.gz
Theta_e
313 316 315 313 313 313 313 314 316 314 313 317 316 316 313 311 312 313 312 312 311 312 311 310 311 311 313 315 318 318 317 316 316 315 314 313 311 310 309 309 309 308 308 308
315 315 312 312 312 313 314 315 314 314 313 317 317 316 312 312 311 311 313 313 313 313 313 311 310 310 311 313 314 314 314 313 311 310 311 310 308 308 308 309 310 310 309 309
316 313 312 312 314 317 316 315 315 316 315 315 315 317 315 312 312 312 311 311 311 312 313 312 311 310 309 309 309 310 309 308 308 308 309 309 309 309 309 309 309 308 308 307
314 311 313 315 315 314 318 313 316 316 318 321 314 320 316 312 313 313 312 313 312 312 311 309 309 308 308 308 309 309 310 309 309 308 308 307 308 308 307 306 306 305 305 305
314 312 315 318 314 313 318 315 316 317 319 319 319 319 318 314 315 315 315 314 313 312 310 309 308 308 308 309 309 309 309 309 309 307 306 307 306 305 305 305 304 304 303 303
315 312 313 314 313 315 315 317 315 316 318 323 319 318 319 316 315 316 315 313 311 310 309 309 309 309 309 309 309 309 309 308 307 306 306 306 304 304 304 304 303 302 302 303
317 317 316 314 318 317 318 317 321 325 326 325 317 317 319 315 314 314 314 312 311 310 311 311 310 310 310 309 308 308 308 307 306 306 305 305 304 304 304 303 302 301 301 302
320 318 318 316 317 317 318 318 323 319 324 323 316 320 319 314 313 312 312 311 311 311 310 310 310 310 310 309 309 308 308 307 305 304 304 304 303 303 302 301 300 300 300 299
321 318 316 317 316 316 319 322 316 319 315 322 320 318 316 313 313 313 313 313 312 311 311 312 311 311 310 309 308 308 307 306 304 304 304 303 303 302 300 300 299 298 298 298
318 322 316 316 315 315 317 315 321 320 324 322 320 320 319 316 315 313 314 314 313 311 312 312 311 311 310 309 308 308 308 306 305 304 303 302 301 300 299 298 297 296 296 297
315 318 316 314 318 318 319 319 317 318 319 325 323 321 316 315 314 314 314 313 313 312 312 311 310 310 309 309 308 307 307 306 305 304 301 301 300 298 297 295 295 295 296 297
315 315 318 316 314 314 315 316 315 319 318 319 320 318 312 314 313 313 313 312 312 312 311 310 309 309 308 307 305 305 306 306 305 302 301 300 298 298 295 294 294 295 294 294
315 315 314 310 314 313 318 316 314 313 313 319 320 317 310 312 312 313 314 314 313 312 311 310 309 308 306 304 304 305 305 305 302 300 300 299 297 296 294 294 294 294 293 294
314 314 313 313 311 312 316 316 314 317 320 317 318 316 315 314 313 313 313 312 312 311 310 310 308 306 304 303 304 304 303 301 300 299 299 298 296 295 295 294 294 294 294 293
315 318 315 314 314 314 315 316 316 317 317 319 317 316 315 314 313 314 312 311 311 311 310 308 305 302 302 303 301 299 299 299 299 299 298 297 296 296 295 294 294 294 294 293
312 316 314 315 313 312 314 314 314 315 316 316 316 317 314 312 313 312 311 310 310 309 307 304 302 303 301 298 297 297 297 298 298 297 297 297 297 296 295 294 294 294 294 293
314 314 313 315 310 311 313 310 313 314 313 315 315 313 312 314 312 311 310 310 307 305 304 302 302 299 297 296 296 297 297 296 296 296 296 295 293 294 293 292 289 288 287 286
309 310 310 316 310 318 313 310 312 313 312 311 310 310 311 313 311 309 308 306 305 303 302 302 299 297 296 295 296 296 296 295 294 294 294 292 290 289 288 288 287 287 286 285
309 309 313 315 315 314 314 312 311 313 313 310 310 312 312 311 309 312 305 303 303 302 301 299 297 296 295 295 295 295 296 295 292 291 290 290 288 288 287 287 286 285 285 284
306 304 313 313 317 318 313 308 312 311 314 309 312 311 311 311 313 312 302 301 300 302 300 297 296 295 294 294 295 296 296 295 291 291 290 290 287 286 286 285 285 284 284 283
308 309 314 314 313 314 310 308 307 314 315 311 311 310 310 311 308 302 301 301 301 301 298 295 295 295 294 293 293 293 292 293 290 291 289 287 287 286 285 284 283 283 283 282
310 310 309 308 312 314 306 309 312 312 309 310 309 309 308 303 301 300 300 300 300 300 297 295 295 294 294 291 291 291 291 291 290 289 287 287 286 284 284 283 283 282 282 282
313 311 313 311 313 308 306 309 309 308 308 307 307 302 299 298 299 299 299 299 299 299 296 294 294 294 293 292 291 292 292 290 289 287 287 285 285 284 283 283 283 282 282 281
309 307 311 310 312 311 310 311 309 307 304 302 301 299 300 297 299 299 299 299 299 298 295 294 294 295 294 293 292 291 289 288 287 287 286 285 285 284 284 283 282 282 282 281
312 311 312 312 312 312 310 309 305 301 299 298 297 298 298 299 299 299 299 298 297 296 295 294 294 294 293 293 291 289 288 287 287 286 285 285 284 283 283 282 282 282 281 280
311 313 313 314 312 313 308 303 300 298 297 297 298 299 298 297 297 297 296 295 294 294 294 294 294 294 293 291 289 288 287 286 286 285 285 284 283 283 282 281 281 280 280 279

GFSCGP_925_thetae_024.txt.gz
Theta_e
319 320 320 319 318 318 317 318 318 317 318 320 321 319 318 318 319 319 319 319 319 319 319 318 316 315 316 318 321 324 323 322 320 319 318 317 316 314 313 313 312 313 313 313
319 320 317 317 317 317 318 319 319 319 318 320 321 319 317 317 317 318 319 319 319 319 318 316 316 316 316 316 316 317 315 314 313 312 312 312 312 312 313 313 313 313 312 311
319 317 315 317 320 320 320 320 320 320 320 320 321 320 318 317 317 317 318 318 317 317 317 317 315 315 315 314 314 314 313 313 313 313 313 313 313 313 313 311 311 310 309 308
317 316 318 320 320 320 321 318 321 321 322 322 321 323 319 318 318 318 319 320 320 318 316 315 315 315 315 314 314 314 313 313 312 312 312 312 312 311 310 310 309 308 307 307
316 318 320 320 319 319 322 320 321 321 323 322 323 322 321 318 319 319 319 319 318 317 316 315 315 314 314 314 314 314 313 312 312 311 311 311 311 310 310 309 308 307 306 305
318 317 319 320 318 318 320 321 321 322 324 327 324 323 323 321 320 319 319 318 317 317 316 315 314 314 314 314 313 313 312 311 310 310 310 309 308 307 307 306 305 304 303 303
319 320 319 319 321 321 322 323 324 328 328 326 322 322 324 319 318 318 318 318 317 317 317 316 315 315 314 314 313 312 312 311 309 309 308 307 306 305 305 304 303 303 302 302
321 323 320 320 320 321 322 323 326 325 324 324 321 322 323 318 317 317 316 316 316 316 316 316 314 314 314 313 313 312 312 311 309 308 307 306 305 305 304 303 303 302 301 301
323 321 320 319 319 320 323 325 321 324 322 326 321 321 319 317 317 317 317 316 316 316 315 315 314 314 314 313 313 312 310 309 309 307 307 307 305 305 304 302 301 300 300 300
321 323 320 318 319 320 321 319 326 324 334 322 319 321 321 320 319 317 317 317 316 315 315 315 314 313 312 312 312 311 308 308 308 308 307 305 305 304 302 300 299 299 299 300
317 321 319 317 320 322 322 323 322 322 324 326 324 318 320 319 319 317 317 316 316 316 315 314 312 312 311 310 309 307 307 307 307 307 305 305 304 302 300 299 298 299 299 298
319 320 318 316 317 318 319 320 319 322 322 322 322 318 316 317 317 316 316 316 316 315 313 313 312 311 310 308 306 306 306 305 304 303 303 303 302 300 299 298 297 297 297 296
319 319 316 316 318 319 320 319 318 317 319 320 324 319 315 316 316 316 316 316 314 313 313 312 311 310 308 305 305 304 302 300 300 300 301 301 300 299 298 298 296 296 295 296
317 319 315 314 313 314 314 315 316 318 322 319 319 318 317 316 315 316 316 314 314 313 313 312 311 308 305 304 302 299 299 299 299 300 300 299 299 298 298 297 296 296 296 295
320 319 318 317 316 316 316 317 316 317 318 320 319 317 316 316 315 315 315 314 313 313 312 311 308 305 304 301 298 298 298 299 299 299 298 298 299 297 296 295 294 295 295 294
319 321 318 319 316 316 317 316 316 316 317 317 317 318 316 314 314 315 314 313 313 312 311 307 303 304 301 299 298 298 298 298 298 298 297 297 296 296 296 295 294 292 291 290
320 321 320 325 315 316 321 316 315 316 316 316 317 315 314 314 315 315 314 313 313 311 307 303 304 302 299 298 297 298 298 298 297 297 296 295 294 293 292 291 291 290 290 289
317 318 316 322 319 325 316 314 314 315 315 314 314 314 314 314 314 313 313 312 309 303 301 302 303 300 299 297 296 297 297 297 296 295 295 293 292 291 291 290 290 289 288 288
316 317 318 320 318 316 315 314 314 314 315 314 314 314 314 314 314 314 309 304 302 300 301 303 301 299 298 297 296 296 296 296 296 294 293 293 292 291 290 290 289 288 287 287
312 313 321 314 320 319 315 313 313 313 316 314 314 314 314 312 313 314 302 299 299 300 301 302 300 299 298 296 296 295 294 294 294 293 293 292 291 290 290 288 287 287 286 286
313 314 317 317 319 317 314 312 311 317 318 313 312 313 311 311 308 302 299 300 300 300 301 301 300 299 297 296 295 294 293 293 292 292 292 291 290 289 287 287 287 286 286 285
318 319 317 315 316 318 311 312 316 315 314 313 313 311 308 302 299 299 299 299 299 299 298 299 299 298 297 296 294 294 294 293 293 292 291 290 289 288 287 287 286 286 286 285
316 315 316 315 317 314 313 312 312 314 314 311 305 300 300 299 299 300 299 300 299 299 299 298 298 297 297 296 295 294 294 293 292 291 290 289 288 287 287 287 286 285 285 284
315 313 316 315 314 314 314 314 310 309 305 303 301 301 300 300 299 299 299 298 298 297 296 296 296 296 296 296 296 295 294 292 291 290 289 288 288 287 287 286 286 285 284 283
315 314 315 315 314 314 313 311 305 301 300 299 298 298 298 299 298 297 296 295 295 295 294 294 295 295 295 295 295 294 292 291 290 289 288 288 287 287 286 285 284 283 283 281
314 315 316 316 314 313 309 302 300 299 298 297 297 298 297 296 295 294 294 294 294 294 294 294 294 294 294 294 294 293 291 289 289 288 288 287 286 287 285 285 284 283 281 279

GFSCGP_925_thetae_027.txt.gz
Theta_e
321 322 322 321 319 318 318 318 319 320 320 320 322 321 321 321 321 322 321 321 322 324 324 322 321 321 321 322 324 326 328 326 324 323 321 319 318 317 316 315 315 316 316 315
320 322 320 319 318 318 319 321 321 321 320 320 322 321 320 320 321 321 322 322 321 321 321 320 320 320 319 319 320 320 319 318 317 316 316 316 316 316 316 316 315 314 314 313
321 320 318 319 320 321 322 322 323 322 321 321 322 322 320 320 320 320 320 320 320 320 320 320 319 319 319 318 318 317 317 316 316 316 316 315 315 315 315 315 315 314 313 311
320 319 319 320 321 321 323 321 322 322 323 324 323 324 322 321 320 321 322 322 321 320 319 319 319 318 318 318 317 317 316 316 315 315 315 316 316 316 316 315 313 312 311 309
320 319 321 322 322 321 323 322 322 323 324 323 324 322 324 321 322 322 321 321 321 320 320 319 318 318 318 317 317 316 315 315 314 314 314 314 314 312 311 311 310 308 306 306
320 320 321 322 321 321 321 324 324 324 325 327 323 324 324 323 323 322 321 320 320 320 319 318 318 317 317 317 317 316 315 315 314 313 312 312 311 309 308 308 307 306 306 305
321 322 321 322 323 323 323 325 328 329 329 329 325 324 326 322 321 322 321 320 320 319 319 319 318 318 317 317 316 316 315 315 313 312 311 310 309 308 307 307 306 306 304 303
324 327 322 321 322 322 324 324 329 327 327 326 323 321 326 321 320 319 319 319 319 319 318 317 317 317 317 316 316 316 315 313 311 311 310 309 309 308 307 307 306 304 302 301
324 324 321 320 321 322 325 327 323 325 328 326 321 324 323 320 320 319 319 319 319 318 317 317 316 316 315 314 314 314 313 311 310 310 310 309 309 307 307 306 304 301 301 301
321 326 321 319 320 322 321 322 327 326 331 324 320 320 322 322 321 320 320 319 318 318 317 317 315 314 313 313 312 311 310 309 309 309 308 307 306 305 304 303 301 300 300 300
319 321 322 318 321 319 322 323 323 322 323 326 324 320 320 320 320 320 319 318 318 318 317 316 314 314 313 312 311 309 309 308 306 304 303 303 303 303 302 301 300 300 299 298
319 320 320 317 318 319 320 321 321 323 322 323 324 321 318 317 318 318 317 317 317 317 315 314 313 313 312 310 308 307 306 303 301 300 300 301 301 301 301 300 298 298 298 297
320 322 321 319 321 321 321 320 319 319 320 319 326 321 317 318 318 318 317 317 317 316 315 314 313 312 311 309 307 304 301 300 300 300 300 300 300 300 299 299 298 297 297 297
318 320 319 320 318 317 317 317 316 317 322 322 321 319 318 317 317 317 316 316 316 315 314 313 312 311 309 307 304 301 299 299 300 300 299 299 299 300 299 298 296 297 297 296
321 322 319 319 317 316 316 317 317 317 317 321 319 319 318 318 317 316 316 315 315 315 314 313 311 309 306 304 301 300 299 299 299 299 299 298 297 298 297 297 296 296 295 293
320 323 321 320 317 315 315 316 316 316 317 317 317 317 317 316 315 315 316 315 315 313 313 311 307 304 304 301 301 299 299 299 299 299 298 297 296 295 295 294 294 293 292 292
321 323 321 324 319 318 324 319 316 316 316 316 318 317 316 316 315 315 315 314 314 312 310 305 302 303 303 301 300 298 298 298 298 298 297 296 295 295 294 293 293 292 291 290
323 321 320 323 319 327 317 315 315 316 315 315 315 316 315 315 315 315 312 310 310 307 303 301 302 303 302 300 299 298 297 297 297 297 296 295 295 294 293 292 291 291 289 289
320 321 321 323 320 316 316 316 316 316 316 315 316 316 315 314 314 314 310 307 303 301 300 302 303 302 301 300 300 298 297 296 295 295 295 294 294 293 292 291 290 289 289 288
317 319 323 319 322 321 316 315 314 314 318 316 316 316 315 315 318 313 302 301 301 301 302 302 301 301 301 300 299 298 297 296 295 294 294 293 293 292 291 290 289 289 288 288
316 318 321 319 321 318 314 314 313 318 320 316 315 313 311 311 307 305 300 300 302 301 301 300 299 300 300 299 298 298 297 296 295 295 294 293 292 291 290 289 289 288 288 287
319 319 318 318 320 319 314 314 318 317 316 315 313 308 307 306 303 301 302 302 301 300 300 299 299 298 298 297 297 297 297 296 295 295 294 293 292 291 289 289 288 288 287 287
318 318 319 318 319 317 315 315 315 315 314 310 305 304 304 304 303 301 301 301 299 298 297 297 296 296 295 295 295 295 296 296 295 294 293 292 291 290 289 288 288 287 287 286
317 316 320 318 315 314 315 315 312 310 308 305 304 304 302 300 301 300 299 298 297 296 295 295 295 295 295 294 294 294 294 295 295 293 292 291 290 289 288 288 287 287 286 285
318 316 316 317 316 315 312 309 306 304 302 301 300 300 300 300 299 298 297 296 295 295 294 294 294 294 294 293 293 293 293 294 293 292 291 290 289 288 288 287 286 286 285 283
316 316 319 318 314 315 310 305 302 301 301 300 300 300 299 298 298 296 296 295 295 294 294 294 294 294 293 293 293 292 293 292 291 290 290 289 288 288 287 286 286 285 284 283

GFSCGP_925_thetae_030.txt.gz
Theta_e
321 322 322 321 319 318 318 318 318 319 320 319 319 321 321 321 321 322 322 322 324 324 322 322 322 323 323 324 326 326 327 325 324 324 321 319 318 317 317 316 316 316 316 316
320 321 320 319 319 318 318 320 321 321 320 319 322 321 321 321 322 322 322 323 322 322 322 322 321 321 320 320 320 320 319 318 318 317 317 316 316 317 317 317 316 315 315 314
322 321 318 319 319 320 321 321 324 322 321 321 321 322 321 320 321 321 321 321 321 321 321 322 321 320 319 319 318 318 317 317 316 315 316 316 316 316 316 316 316 315 313 312
321 319 319 320 321 321 322 323 322 321 322 322 322 323 321 320 321 322 322 322 321 320 321 320 320 320 319 319 318 317 317 316 316 316 316 316 316 316 313 312 312 311 309 308
320 319 321 322 323 321 323 322 322 322 323 323 323 324 323 321 321 323 322 322 322 321 321 320 320 319 319 318 318 317 316 316 315 315 314 314 313 312 311 309 309 307 307 306
320 320 322 322 321 321 321 324 324 325 325 330 325 323 323 322 322 323 322 321 321 320 320 319 318 318 319 318 318 317 316 316 315 314 313 312 311 310 309 309 308 308 307 305
322 322 322 321 323 323 323 324 333 335 334 334 326 325 326 324 323 323 322 321 321 321 320 319 318 318 318 317 317 317 316 315 313 312 312 311 310 310 309 308 308 307 305 303
324 326 323 321 322 322 324 323 335 331 336 333 325 323 326 323 321 321 321 320 320 320 319 318 317 317 317 315 314 314 314 313 311 310 311 311 310 309 308 307 306 304 302 301
324 325 321 320 321 321 323 328 322 323 329 332 322 325 323 321 321 320 320 320 320 319 318 318 317 316 315 314 313 313 312 311 310 310 309 307 307 306 306 305 303 302 301 301
321 326 321 319 319 323 321 320 325 331 332 327 321 321 326 322 322 321 320 320 319 318 318 318 316 315 314 314 313 312 310 309 309 306 303 302 302 303 303 303 302 301 300 299
319 323 322 319 321 319 321 322 322 321 324 329 328 322 319 319 321 321 320 318 318 318 318 317 315 314 314 312 311 309 308 307 303 301 301 301 301 301 302 301 300 299 298 298
318 321 325 318 318 319 319 321 321 331 324 328 328 324 318 318 319 319 318 318 318 318 317 316 314 313 312 311 309 308 305 302 301 300 300 301 301 300 300 300 300 299 298 297
320 324 328 323 321 321 318 318 318 319 323 322 326 321 317 318 319 318 318 317 317 318 316 315 313 313 312 310 308 305 302 300 300 300 300 300 300 300 300 300 299 297 297 297
320 321 320 323 318 317 316 316 316 317 326 323 323 320 318 318 319 317 316 317 316 316 315 314 313 312 310 308 306 303 301 300 299 300 300 299 299 298 298 298 297 297 296 296
322 323 321 320 317 316 315 314 315 315 318 319 319 318 318 318 317 316 316 316 315 315 314 312 311 308 306 306 304 302 301 299 299 299 299 299 298 297 296 296 296 295 294 293
321 325 323 322 317 316 314 314 316 316 316 316 317 317 317 317 317 317 316 315 314 314 313 310 307 305 304 304 303 302 300 299 298 298 299 298 297 296 295 295 294 294 293 293
323 327 325 326 320 319 325 321 316 316 316 317 319 317 316 316 316 316 314 313 312 310 309 307 305 304 304 304 302 300 300 299 298 297 298 297 296 296 295 294 294 293 292 290
324 323 322 322 320 324 317 315 315 315 316 316 315 316 316 315 314 312 311 310 308 306 305 304 303 303 304 302 301 301 301 299 298 297 296 296 295 294 294 294 293 292 290 289
321 323 321 325 322 318 317 317 316 317 317 316 317 316 316 314 313 312 308 306 305 304 303 303 303 303 301 301 301 301 300 299 298 297 296 295 294 294 294 293 292 290 289 289
318 322 325 320 319 321 318 315 315 315 318 318 316 316 314 313 314 312 307 305 303 302 303 302 301 300 300 300 298 298 298 298 298 297 296 295 295 294 293 292 290 289 289 289
316 317 319 319 319 318 315 315 314 317 320 317 314 312 310 310 309 307 304 303 303 302 301 299 299 298 297 296 296 296 296 296 296 297 296 295 294 294 292 291 289 289 289 288
317 318 317 318 319 319 315 316 318 318 317 314 312 309 307 306 305 304 303 302 301 299 298 297 296 296 296 295 295 295 295 294 295 296 296 295 293 293 291 290 289 289 288 287
321 322 323 320 319 318 317 317 315 314 312 310 308 307 305 304 302 302 301 300 298 297 296 295 295 294 294 295 295 294 294 294 294 295 295 294 293 291 290 289 288 288 287 286
316 316 324 320 317 316 316 314 311 309 308 306 305 304 302 301 301 300 299 298 297 296 296 295 294 294 295 295 294 293 293 292 293 294 293 292 291 290 289 289 288 287 286 285
321 318 318 318 317 316 313 310 307 305 304 303 301 301 301 300 299 298 298 296 296 295 295 294 294 294 294 294 293 293 293 293 292 292 291 290 290 289 288 288 287 286 286 285
317 316 319 320 317 316 313 306 304 305 303 302 301 300 299 297 297 296 296 295 294 294 294 294 294 294 294 294 293 292 293 292 291 290 289 289 289 288 287 287 287 285 285 284

GFSCGP_925_thetae_033.txt.gz
Theta_e
319 318 319 317 317 317 317 317 316 317 317 317 316 317 317 317 315 319 319 320 320 320 320 320 320 321 322 322 321 322 319 318 318 317 318 317 316 316 316 317 316 315 315 315
319 319 317 318 317 318 317 319 321 317 318 316 317 318 317 318 318 318 318 318 318 319 319 320 319 319 319 318 318 318 318 317 316 316 316 317 317 317 316 316 315 314 313 311
319 318 317 318 320 320 321 321 320 320 319 319 319 318 318 318 318 318 317 316 318 319 319 319 318 318 318 317 317 316 316 316 314 315 316 316 315 315 314 312 310 309 308 307
318 318 319 319 321 319 323 322 321 321 319 320 318 317 318 318 318 319 318 314 316 317 317 318 318 318 318 317 317 316 316 316 315 314 314 314 314 313 311 310 309 307 307 306
319 318 321 323 321 320 322 320 321 321 321 321 321 319 317 318 322 321 318 318 316 315 316 316 318 318 318 317 317 316 316 315 314 314 313 313 312 311 310 309 308 308 307 305
318 319 320 320 320 320 321 321 322 322 322 323 325 322 318 319 322 321 319 318 316 315 315 316 318 318 318 317 317 317 316 314 311 311 311 311 310 310 309 308 308 306 305 303
320 321 320 320 321 321 321 321 326 326 326 326 328 328 329 322 321 320 319 318 316 315 314 313 314 316 317 316 315 314 313 312 311 310 310 310 309 308 308 307 306 304 303 301
324 324 320 320 320 321 322 322 322 329 327 327 321 326 323 319 319 319 318 317 316 315 315 313 315 315 314 313 313 313 313 311 310 309 306 305 304 304 305 304 303 302 302 301
326 323 319 319 318 319 319 323 320 321 323 323 323 322 320 319 320 319 319 318 316 315 314 313 314 314 314 314 313 312 310 309 307 303 302 301 301 301 301 302 302 301 300 299
320 324 320 318 318 322 321 318 320 323 324 326 321 325 327 321 320 319 318 317 318 316 315 314 313 314 313 312 311 309 308 305 302 301 300 300 300 301 302 301 300 300 299 298
318 321 320 317 317 318 319 321 320 320 319 321 320 319 318 319 319 318 317 317 316 314 313 311 312 312 312 311 309 307 303 301 300 300 300 300 300 300 300 300 299 299 298 298
317 320 318 318 317 318 318 320 320 317 321 319 317 317 315 317 317 317 316 316 315 315 314 311 312 312 310 309 307 303 301 300 300 299 300 300 299 300 300 298 298 298 296 296
319 319 318 321 320 320 318 317 316 318 314 317 313 314 315 318 317 318 316 314 313 312 311 310 309 308 307 306 304 302 301 300 299 299 299 299 299 300 299 297 297 296 296 296
318 320 318 318 318 315 315 314 313 315 314 317 316 318 316 318 318 316 314 312 312 312 311 309 308 306 304 304 304 303 301 300 299 299 298 298 299 299 297 297 295 295 295 294
320 320 321 320 316 315 314 314 312 312 313 314 314 317 316 316 315 314 313 313 313 312 310 307 305 304 304 304 304 304 301 300 299 298 298 298 299 297 296 295 295 295 294 293
319 320 318 317 318 316 314 313 314 315 316 316 316 316 314 314 313 313 312 312 310 308 306 305 303 303 303 303 303 302 301 300 300 298 298 297 297 297 296 295 295 294 293 292
322 315 313 316 316 313 313 316 315 315 314 315 316 315 314 314 312 311 309 308 307 305 304 303 302 302 302 303 303 303 301 301 300 299 298 297 297 296 295 295 294 293 292 290
316 315 312 308 310 306 316 313 315 316 315 315 316 315 314 312 309 307 305 305 305 304 303 302 302 302 303 303 301 297 297 297 298 298 298 297 296 295 294 293 294 292 290 289
319 310 307 313 313 313 315 316 316 315 317 316 316 314 312 310 310 307 305 304 303 302 302 302 303 302 299 296 296 295 295 295 295 296 296 296 296 295 293 293 291 291 289 289
318 311 307 303 305 308 313 314 313 313 312 315 313 312 310 308 306 306 304 303 302 302 302 302 296 295 295 295 295 294 294 294 294 295 296 296 295 294 292 292 291 289 289 288
308 312 307 304 304 310 314 314 313 312 311 312 310 309 308 307 304 304 302 302 303 302 297 296 295 294 294 294 294 294 294 293 294 293 294 294 294 293 292 291 290 289 288 287
309 308 312 312 311 310 314 315 312 311 312 310 308 307 306 304 303 302 302 299 298 296 295 295 294 294 294 294 294 293 293 293 292 292 293 294 293 292 291 290 289 288 287 286
315 313 311 311 310 310 314 313 311 310 308 308 307 305 304 303 301 300 299 296 295 295 295 294 293 293 294 294 294 293 293 292 292 292 292 292 292 291 290 289 288 287 286 285
314 315 312 314 315 315 312 309 308 307 306 305 304 304 303 301 300 297 295 294 294 294 293 293 294 293 293 293 293 293 293 292 292 291 291 290 290 289 289 288 287 286 286 285
313 316 315 312 313 311 310 308 305 305 304 303 303 302 300 297 296 295 294 293 293 293 293 293 293 293 293 293 293 293 292 292 291 290 289 288 289 288 287 287 286 285 285 284
316 314 309 309 314 312 309 305 304 302 302 302 300 300 298 296 294 294 293 293 293 293 293 292 292 292 292 292 291 292 292 291 290 289 288 287 288 287 287 286 286 285 284 283

GFSCGP_925_thetae_036.txt.gz
Theta_e
318 316 317 314 314 315 315 315 316 316 316 316 315 316 317 316 318 319 319 319 319 318 318 318 319 320 322 319 319 322 322 319 322 319 317 316 316 315 316 315 314 313 312 311
316 317 316 316 317 318 317 318 318 317 317 314 315 317 316 317 318 319 319 319 319 318 317 317 317 317 317 317 317 316 315 315 316 316 316 316 316 314 311 310 309 308 308 307
317 317 316 319 318 321 321 319 320 319 318 317 315 317 319 317 316 318 317 318 318 318 317 317 316 316 316 316 316 315 315 315 314 314 314 314 313 313 312 309 308 307 307 306
316 317 318 320 319 319 323 320 320 319 317 317 316 317 317 317 317 317 318 317 317 318 316 316 316 317 316 316 316 316 315 315 314 314 313 312 312 311 310 309 308 307 306 306
318 319 320 320 320 319 321 319 319 320 319 319 319 316 315 319 320 318 316 316 316 316 316 315 316 317 317 316 316 315 314 314 313 312 312 311 310 310 309 308 308 308 307 306
318 318 318 319 319 319 320 321 321 320 320 321 322 321 316 319 321 319 317 316 315 315 314 315 317 317 317 317 316 315 313 312 311 311 310 310 310 309 308 307 307 306 304 302
319 320 319 319 320 318 319 320 322 325 324 324 325 327 325 321 320 319 317 315 314 313 313 314 315 316 317 316 315 315 314 310 310 310 308 307 306 305 305 305 304 303 302 301
321 323 318 318 319 320 320 321 320 327 324 321 321 326 321 318 318 317 316 315 315 314 312 312 314 316 314 313 313 312 311 309 307 305 303 301 301 301 301 301 302 302 301 300
323 321 319 317 317 318 318 321 318 319 319 319 321 320 319 319 320 320 319 320 319 315 312 312 313 312 312 312 312 311 309 305 302 301 300 300 300 300 301 301 301 300 299 298
320 322 319 318 317 318 318 316 320 318 321 325 320 323 324 320 320 319 317 316 316 316 314 311 311 311 310 310 308 308 306 304 301 300 300 300 300 300 300 300 300 299 298 298
318 319 319 318 316 317 317 319 318 317 317 320 319 317 317 318 317 316 317 317 316 312 310 310 309 308 307 307 306 304 302 301 300 300 299 300 300 299 299 299 299 297 295 295
317 316 315 318 316 317 317 319 318 315 318 317 314 314 317 316 317 316 315 314 312 310 309 307 306 306 305 305 303 302 301 300 300 299 299 299 299 299 299 299 299 296 294 294
316 316 315 318 318 317 317 317 316 316 311 316 310 313 312 315 313 312 312 312 311 310 308 307 306 304 304 304 304 302 301 300 300 299 299 299 298 298 299 299 297 295 295 295
317 317 315 318 317 314 314 313 311 313 312 314 314 315 315 316 314 312 311 311 310 309 307 306 303 303 303 303 303 303 303 301 300 299 299 298 298 297 299 297 296 295 295 294
317 318 319 317 315 314 314 313 311 311 310 311 313 315 315 314 313 312 311 311 309 307 305 304 302 302 302 303 303 303 303 301 300 300 299 298 298 297 297 297 296 295 294 294
317 318 315 314 316 314 313 311 314 313 314 314 314 316 314 312 311 311 310 309 308 305 304 303 302 301 302 302 302 301 298 297 297 298 298 299 298 297 297 296 295 295 293 292
318 312 309 308 312 310 310 314 314 314 314 314 314 313 312 312 311 309 307 306 305 304 303 302 301 301 301 301 298 296 295 295 294 295 296 296 295 296 295 294 294 293 292 290
313 311 305 305 304 301 311 312 313 316 316 315 314 313 311 310 307 305 304 304 303 302 301 300 301 301 297 296 295 294 294 294 294 295 296 295 295 295 295 294 292 290 290 289
314 306 308 302 309 307 313 315 314 313 315 315 314 312 310 309 307 306 305 303 303 301 301 301 298 295 294 293 293 293 293 293 294 294 293 292 294 294 294 293 292 292 292 289
312 305 304 308 301 303 308 313 312 311 312 314 312 310 309 307 304 304 303 302 301 301 300 296 294 293 293 293 293 293 293 293 293 292 292 292 293 293 293 292 292 291 288 288
310 302 306 299 300 307 308 312 311 311 311 311 310 308 306 305 303 302 302 301 300 296 294 294 293 293 293 293 293 293 293 293 292 292 292 291 292 292 292 291 289 288 288 287
310 308 305 303 301 310 310 313 312 309 310 309 307 306 305 304 303 302 301 297 294 293 293 293 293 293 293 293 293 293 292 292 292 292 291 291 291 291 291 289 289 288 287 286
313 309 309 310 310 307 311 311 311 309 307 307 305 304 304 302 302 300 295 294 293 292 293 293 293 293 293 292 292 292 292 292 292 291 290 289 290 289 289 288 287 286 285 285
312 312 310 311 312 313 310 308 308 307 306 305 305 303 303 301 299 294 292 292 292 293 293 292 292 292 292 292 291 291 291 292 291 291 289 288 288 288 287 287 286 285 285 284
308 313 313 311 312 311 310 308 305 305 304 304 303 302 300 296 294 293 292 291 292 292 292 292 292 292 291 290 289 289 290 291 290 290 289 287 287 288 287 286 285 285 284 283
313 313 309 311 311 310 308 304 303 304 303 302 301 299 294 294 293 292 291 292 292 291 291 291 291 291 290 289 289 289 289 289 288 289 288 287 287 286 285 284 284 284 283 283

GFSCGP_925_thetae_039.txt.gz
Theta_e
316 314 316 314 314 315 315 314 315 315 314 313 314 314 314 316 318 318 317 318 317 317 316 317 317 321 326 327 328 328 328 326 325 320 317 315 315 314 313 311 311 311 311 310
315 317 316 315 317 316 316 315 316 317 315 314 314 314 314 315 318 318 318 317 316 316 315 315 317 317 317 316 316 316 316 316 316 315 315 315 313 312 312 311 310 309 308 308
316 316 316 317 318 320 319 318 318 318 316 313 315 316 318 316 317 318 317 316 316 315 315 315 314 315 315 315 315 314 314 314 314 313 313 312 312 311 310 309 308 307 307 306
315 317 318 317 318 318 322 319 318 318 315 312 314 318 318 317 318 318 318 316 316 316 315 315 314 314 314 315 315 315 314 314 314 313 313 312 311 311 309 308 307 306 305 305
317 319 318 319 319 318 320 318 318 319 317 318 319 315 315 317 319 318 317 316 317 316 314 314 315 315 314 314 315 314 314 313 312 312 311 311 310 310 309 308 307 306 305 304
317 316 318 319 318 318 319 319 319 318 318 321 321 320 315 318 318 317 316 316 316 316 315 315 315 315 315 314 313 313 312 310 310 310 310 310 309 309 308 306 306 305 303 302
318 319 316 318 320 318 317 319 321 324 323 323 321 324 321 318 317 317 316 315 314 313 313 313 314 315 316 315 313 312 311 310 309 309 308 307 305 304 303 303 302 302 302 301
320 321 318 317 318 319 319 320 318 326 323 318 320 324 321 317 316 316 315 313 313 313 313 314 315 315 314 313 311 310 310 309 307 306 303 301 300 300 300 300 301 301 301 300
320 320 318 316 317 317 318 319 316 319 316 317 319 320 318 318 317 316 316 315 316 316 314 312 311 311 310 310 310 309 308 305 302 301 300 300 300 300 299 300 300 300 299 298
319 321 318 316 316 315 315 315 320 316 319 322 319 321 321 319 319 318 318 318 317 314 311 309 309 308 309 308 308 307 304 303 301 300 300 300 300 299 299 299 299 299 299 296
317 316 317 317 315 316 316 317 315 316 315 318 317 317 312 317 317 316 316 316 310 308 308 306 306 306 307 306 305 303 302 301 300 300 300 299 299 299 299 299 299 299 297 295
316 314 315 316 314 316 316 318 314 310 315 314 313 313 315 314 314 314 314 311 309 308 306 306 305 304 304 304 302 301 300 300 300 300 300 300 299 298 298 298 299 299 297 294
315 314 314 316 316 315 317 314 315 312 309 315 308 311 312 312 312 311 310 309 308 307 305 303 303 303 303 303 303 303 303 303 300 299 299 299 298 297 297 297 298 298 296 295
314 316 313 315 316 314 312 311 312 312 312 313 312 313 315 313 312 312 310 309 307 305 304 304 303 302 302 302 302 302 301 300 299 299 298 298 298 297 297 297 297 297 296 295
314 317 317 314 313 313 313 311 310 310 309 310 309 313 313 313 311 311 310 309 307 305 304 303 302 301 301 301 300 298 296 295 295 294 295 296 295 294 294 295 296 296 295 294
315 316 314 314 314 312 312 310 310 311 310 310 314 316 312 311 310 310 308 307 306 305 303 302 301 300 300 299 296 295 294 294 294 294 295 294 294 293 294 294 295 295 293 293
314 310 307 305 309 306 304 308 312 312 313 312 315 312 310 311 310 308 306 305 304 303 302 301 300 299 297 296 294 293 293 293 294 294 295 295 293 293 293 293 294 294 293 292
311 308 301 303 302 304 307 309 311 312 315 313 313 311 310 309 308 305 304 303 302 301 300 299 299 296 294 293 293 293 293 293 293 294 294 292 292 292 292 293 293 292 291 290
311 305 306 304 306 305 310 313 314 313 313 313 312 310 309 307 305 305 303 302 301 301 300 298 295 293 293 293 293 293 292 292 293 293 292 292 291 292 293 293 292 291 291 290
308 303 303 305 300 301 305 313 311 310 311 312 311 310 309 305 305 304 302 301 300 299 295 293 293 293 293 293 293 293 292 292 292 292 292 292 291 291 292 292 291 291 289 287
309 300 305 296 299 305 305 311 309 311 306 311 310 309 305 305 303 301 301 300 297 293 293 293 293 292 292 292 292 292 291 292 292 292 292 291 291 290 291 291 289 287 287 288
311 307 304 303 301 309 307 310 311 308 309 310 307 305 304 303 303 301 300 293 292 292 292 292 292 292 292 292 291 291 290 290 291 291 291 290 289 289 289 289 288 289 288 285
310 307 308 309 309 307 307 310 309 308 308 307 306 304 304 303 302 299 293 292 292 292 292 292 291 291 291 291 291 289 289 290 291 291 291 289 288 288 288 287 286 286 285 285
310 309 308 309 310 308 309 308 308 307 306 304 303 303 303 302 298 293 291 290 291 292 291 291 291 291 290 291 290 288 289 288 289 289 289 289 287 287 287 287 286 285 284 283
308 311 311 309 310 311 309 307 305 304 303 304 304 303 302 296 293 292 290 291 291 291 290 290 290 290 290 290 289 288 288 288 288 287 287 288 286 287 286 285 284 284 284 283
309 310 308 309 309 310 308 305 303 303 303 303 302 298 294 293 292 291 290 291 291 291 290 290 289 289 289 289 288 287 287 286 287 287 287 286 286 286 284 284 283 283 283 283

GFSCGP_925_thetae_042.txt.gz
Theta_e
314 314 314 313 313 313 314 313 314 314 313 312 312 314 315 316 316 317 317 316 317 315 314 317 321 323 326 326 326 326 326 326 326 317 314 314 314 313 314 313 312 311 310 309
315 315 314 316 314 314 314 314 315 315 313 312 314 316 315 316 317 317 316 316 315 314 314 315 317 318 318 318 320 323 323 320 318 316 314 313 313 311 310 309 309 309 308 307
315 315 315 317 317 318 318 316 317 316 314 312 315 315 317 317 317 317 316 315 314 314 314 314 315 315 315 314 314 314 314 314 314 313 313 312 311 310 310 309 308 307 307 306
315 316 316 316 317 317 320 318 317 316 313 315 313 317 318 317 318 318 317 315 315 314 315 314 313 313 314 314 314 314 314 314 313 313 312 311 311 310 309 308 307 306 306 305
317 318 317 317 318 317 320 316 317 316 316 316 318 314 314 317 320 319 317 316 315 314 313 312 313 313 314 314 314 314 314 313 313 312 312 311 310 309 308 307 307 306 305 303
317 316 316 318 316 317 316 318 317 317 317 320 321 320 317 317 317 317 316 316 315 314 313 313 314 313 313 313 313 313 312 312 311 310 310 309 309 308 307 305 305 303 302 302
317 317 315 316 319 316 316 317 320 323 321 322 319 321 318 316 316 317 316 315 314 313 313 312 313 313 313 313 311 310 310 309 309 308 307 305 304 302 301 300 300 299 300 301
319 319 317 315 317 318 319 317 319 326 324 320 318 323 320 316 315 315 315 315 314 313 312 312 314 314 314 312 310 311 309 308 305 303 302 301 300 300 299 299 299 299 300 299
319 319 316 315 317 316 318 317 314 318 315 317 317 319 317 316 316 316 315 314 313 312 311 310 311 311 310 310 310 308 308 304 302 301 300 300 300 299 299 299 298 298 298 298
318 320 316 315 315 314 315 314 319 314 316 318 317 318 319 319 317 316 315 313 313 313 309 307 307 307 307 306 306 305 303 302 301 300 300 300 300 299 299 299 298 297 298 298
316 314 315 316 314 316 316 316 314 315 314 316 314 315 312 318 317 316 315 315 310 307 305 303 303 304 304 302 303 302 300 300 300 300 300 299 299 298 298 298 298 298 298 298
315 312 315 315 314 314 315 316 312 309 314 313 312 313 313 313 314 314 312 308 306 305 303 302 303 303 303 303 303 302 301 302 302 299 298 299 298 298 297 296 296 297 298 298
313 313 314 315 313 314 317 314 312 309 308 314 307 308 311 312 311 310 308 307 306 304 303 302 302 302 302 302 302 302 302 301 300 299 297 296 295 297 296 294 294 296 297 297
313 313 313 315 313 312 312 311 313 311 310 312 311 311 314 313 312 310 309 307 305 304 303 302 301 301 301 300 301 299 296 295 294 294 294 295 295 294 293 293 293 293 293 296
311 315 315 313 312 312 311 310 309 310 309 310 309 311 310 311 310 309 308 306 305 304 303 302 300 300 300 299 296 295 294 293 293 293 293 294 294 293 292 292 292 293 294 294
312 314 312 315 312 310 312 310 308 308 308 308 311 311 311 310 308 309 308 306 305 304 303 301 300 299 298 296 295 293 293 293 293 293 294 294 293 292 292 292 292 293 293 292
312 309 309 310 307 304 305 308 308 310 309 309 312 310 310 310 310 308 306 305 303 302 301 301 299 298 296 294 293 293 293 293 293 293 293 293 292 292 291 291 292 293 291 291
309 306 300 301 301 301 306 306 308 310 311 310 311 310 310 310 307 306 303 302 301 301 300 299 298 295 293 292 292 292 292 292 292 292 293 292 292 291 291 291 291 291 291 290
307 303 304 301 304 304 307 312 311 311 310 311 311 309 308 305 305 306 302 301 299 299 300 298 295 293 292 292 292 292 292 291 291 291 291 292 291 291 291 291 291 292 290 290
306 302 304 299 300 300 305 310 310 309 311 309 310 308 307 306 306 307 301 300 300 300 296 293 292 292 292 292 292 291 291 290 289 289 291 291 291 291 290 290 290 290 289 287
307 301 303 294 297 304 303 309 308 312 309 309 309 307 304 306 305 301 300 300 298 293 292 292 292 292 291 291 291 290 289 288 289 291 291 291 291 290 288 288 289 287 287 287
310 310 308 301 298 309 304 310 311 308 307 308 307 305 305 302 301 301 299 294 292 291 292 292 291 291 291 290 290 289 288 288 288 288 290 290 290 289 287 287 288 287 287 286
310 307 307 307 308 305 305 308 308 306 307 307 305 303 303 303 302 299 294 291 291 291 291 291 290 290 290 290 290 289 288 288 288 288 287 287 287 288 287 286 285 285 285 285
309 306 306 308 308 306 306 307 308 306 307 304 304 303 303 302 299 295 291 290 290 291 291 290 290 289 289 289 290 289 288 287 288 287 287 286 287 286 287 286 286 285 285 284
307 308 308 307 308 310 309 307 306 305 303 304 303 302 301 298 294 292 290 290 291 291 290 289 289 289 289 289 289 288 287 286 286 287 287 286 286 286 285 285 284 284 284 283
306 308 308 308 308 308 307 307 303 303 303 303 301 298 295 295 292 291 290 291 291 290 289 289 289 288 288 288 287 287 286 286 286 285 286 285 286 285 284 283 283 282 282 282

GFSCGP_925_thetae_045.txt.gz
Theta_e
316 318 318 315 313 313 314 314 316 315 313 317 317 319 319 319 321 322 322 322 321 320 318 320 322 324 325 325 325 325 325 323 326 323 320 312 311 311 311 310 309 309 308 308
317 317 314 315 313 315 315 316 317 316 313 316 318 320 320 320 320 320 322 321 321 322 321 319 321 323 325 326 326 325 326 325 324 320 314 313 311 310 309 309 308 307 306 306
319 316 315 317 318 320 318 318 318 318 315 315 317 319 321 320 320 319 319 319 320 321 319 317 317 318 320 322 324 322 320 320 318 315 313 312 310 309 308 308 308 307 306 306
318 316 316 317 319 318 321 317 316 316 316 320 315 320 319 321 322 322 320 320 319 319 318 316 315 314 314 315 315 314 314 313 313 313 312 311 311 311 309 308 307 306 306 306
318 317 317 319 317 316 320 317 318 317 319 318 321 320 318 321 324 323 321 319 319 318 318 317 315 314 312 312 312 312 312 312 312 311 311 310 309 309 308 307 307 306 305 303
317 315 316 318 316 316 317 320 320 319 321 325 322 324 324 321 322 322 320 319 318 317 316 315 314 313 313 312 312 312 312 312 311 311 310 309 308 306 305 303 303 301 300 300
319 318 316 316 320 318 319 321 323 324 326 324 320 323 323 318 317 322 321 319 318 317 317 316 315 313 313 312 311 311 310 309 309 308 307 304 301 300 299 299 299 299 299 298
321 320 317 315 318 320 320 320 328 326 328 325 319 326 323 318 317 318 319 319 318 318 317 316 315 314 314 312 310 309 309 308 305 303 302 301 300 300 299 299 298 298 298 298
321 320 315 314 317 317 320 321 317 321 317 322 319 320 318 318 318 318 320 319 319 318 316 316 315 314 312 310 309 309 307 304 302 301 300 300 300 299 299 299 299 298 298 298
319 322 315 314 315 315 317 316 323 319 322 318 317 320 321 322 320 319 320 320 318 315 313 311 310 308 307 306 306 305 303 301 300 300 300 299 299 298 298 298 298 298 298 298
316 319 317 316 316 319 319 319 317 318 317 317 318 316 317 319 320 320 320 318 316 312 309 307 305 304 302 301 301 300 300 300 301 300 298 298 299 298 298 297 296 296 296 296
315 316 319 317 314 314 315 317 317 319 317 316 318 318 314 316 317 317 317 313 311 308 306 305 304 304 304 303 302 302 302 301 301 299 298 295 294 294 295 294 293 293 293 293
315 316 319 318 315 315 317 316 312 311 314 318 324 315 313 314 314 315 314 310 308 307 306 305 303 303 303 302 301 300 298 295 294 294 294 293 294 294 293 293 292 292 292 292
314 314 317 321 316 315 315 314 313 315 318 315 315 313 313 315 315 312 311 310 308 307 306 304 303 302 301 301 299 296 295 294 293 293 293 293 294 293 293 292 292 291 291 293
315 317 315 314 313 312 311 311 314 314 313 318 313 313 312 315 315 313 311 309 307 306 305 303 302 301 300 298 296 294 293 293 293 293 293 294 294 293 292 292 291 291 292 293
313 318 313 316 312 311 313 311 310 310 309 311 310 311 309 311 312 312 310 308 308 306 304 302 301 299 298 296 294 293 293 293 292 292 293 293 293 293 292 291 291 292 292 291
313 315 315 316 308 306 313 312 312 311 310 311 313 313 313 312 313 313 311 309 307 305 303 301 300 297 296 294 292 293 292 292 292 292 292 292 293 292 291 291 292 292 292 291
310 308 305 311 305 310 310 308 309 311 311 310 311 312 313 313 311 311 310 308 305 303 302 301 298 295 293 292 292 292 292 291 290 291 290 291 291 291 292 292 291 291 291 291
307 308 308 314 309 307 308 307 312 313 312 311 312 311 310 308 310 310 307 305 304 302 301 299 295 293 292 292 292 292 291 290 290 289 290 290 290 291 291 291 290 290 290 290
307 305 313 306 310 309 308 308 311 311 316 310 312 311 310 310 316 315 307 303 300 300 298 294 292 292 292 291 291 290 290 289 289 289 290 290 291 291 290 290 289 289 288 287
314 309 314 303 313 310 306 308 309 314 314 310 311 310 309 313 313 305 304 301 300 295 292 291 292 292 291 291 290 290 289 289 289 289 289 290 290 290 290 289 288 287 287 286
315 315 313 304 311 316 305 310 315 314 308 309 310 309 309 305 303 303 301 297 293 292 292 291 291 291 290 290 290 290 289 288 288 288 288 288 287 286 288 287 286 286 286 286
315 313 314 311 314 309 306 310 308 307 308 309 309 307 307 304 303 301 296 293 292 292 292 291 290 290 289 289 289 289 289 288 288 288 287 287 287 287 287 286 287 286 285 285
310 306 311 310 310 307 307 307 308 309 308 308 307 307 305 305 302 296 293 291 292 292 291 290 289 289 289 289 289 288 288 287 287 286 287 287 287 287 286 286 285 285 285 284
310 309 310 310 310 308 309 309 308 307 306 305 304 305 303 300 296 294 292 292 292 291 290 289 289 289 289 288 288 287 287 287 286 286 285 286 286 286 286 285 285 284 284 283
308 310 312 313 308 309 308 306 305 306 306 304 302 298 297 297 294 292 291 292 291 290 289 289 289 289 288 287 286 286 286 286 286 286 286 286 285 286 285 285 284 283 282 282

GFSCGP_925_thetae_051.txt.gz
Theta_e
322 322 321 320 319 319 318 318 318 318 318 318 318 321 323 328 328 330 331 331 331 330 329 329 330 330 330 331 332 331 328 327 327 326 325 322 321 318 315 314 314 314 313 313
322 322 321 319 318 318 320 319 318 319 318 320 320 321 323 328 329 329 330 331 331 331 331 331 332 332 332 332 331 330 329 328 328 325 325 323 319 316 315 314 314 313 313 312
322 322 321 319 319 319 320 321 321 320 320 319 322 324 325 326 328 329 330 330 331 332 333 333 333 332 331 330 330 331 328 327 325 322 320 319 317 316 314 315 314 313 312 311
324 323 319 319 319 321 321 322 321 321 322 321 322 322 326 326 328 329 330 331 332 332 331 331 331 331 331 329 327 325 324 324 321 319 317 317 315 316 316 315 314 313 312 310
320 321 320 320 322 322 324 322 322 320 321 323 323 320 326 328 328 328 330 330 331 329 329 326 325 325 324 324 323 323 322 320 319 318 317 317 317 316 315 314 312 310 309 307
322 322 322 323 322 322 323 323 323 323 322 324 321 323 323 327 326 328 328 329 329 329 326 322 321 320 321 321 320 319 318 318 317 317 317 317 316 314 312 310 308 307 305 304
322 322 322 322 323 323 322 323 326 326 323 324 324 324 321 325 324 326 328 329 329 329 324 322 321 320 321 320 320 319 318 317 317 317 315 313 311 309 308 308 307 305 303 303
321 324 322 322 323 324 323 323 323 321 321 321 324 319 324 326 323 325 328 328 329 326 323 322 321 321 320 320 320 319 318 317 316 314 311 309 308 308 307 306 304 304 303 303
322 322 321 321 322 322 324 322 323 323 325 326 319 323 326 324 324 325 327 328 328 324 323 323 321 321 321 320 320 319 318 315 312 309 307 306 306 305 305 304 304 303 302 301
322 322 321 321 322 322 323 323 323 322 324 321 319 319 323 324 324 325 327 328 325 324 323 323 322 321 321 320 319 318 316 312 307 306 305 303 303 304 304 303 301 300 299 298
321 321 323 321 321 320 324 322 321 323 323 323 317 318 321 321 323 323 325 326 325 324 324 323 322 322 321 320 317 314 310 307 306 304 303 303 304 302 300 300 299 297 297 296
322 322 322 323 321 321 322 322 322 324 322 321 324 320 319 321 322 322 323 324 324 324 324 323 322 319 318 316 313 310 308 306 304 303 303 301 300 300 299 298 297 297 296 296
324 320 322 323 323 321 321 321 320 321 322 323 328 320 320 321 320 321 322 323 324 324 323 321 319 316 314 312 310 309 305 303 300 302 300 299 299 298 297 297 297 296 296 296
318 321 322 324 322 322 324 322 321 321 324 321 318 318 318 319 319 319 320 322 323 323 321 319 317 315 313 311 308 304 303 302 300 299 299 297 297 297 297 297 296 296 296 295
323 324 322 321 321 320 321 321 320 321 320 322 319 317 315 316 318 318 319 320 322 321 319 318 316 314 311 308 305 304 302 300 299 298 297 296 296 296 296 296 296 296 295 295
323 324 324 324 322 321 321 320 319 319 319 317 317 317 317 317 316 316 318 320 321 320 318 317 315 312 310 307 304 302 301 299 298 297 296 295 295 294 295 295 295 295 295 295
325 324 324 322 319 318 323 320 319 318 318 318 320 318 318 317 316 316 317 319 319 319 317 316 313 310 308 304 302 300 299 298 296 295 294 294 293 293 294 294 294 295 295 294
325 325 325 323 317 326 316 315 315 317 318 317 317 317 316 316 317 317 318 318 318 317 316 314 311 308 304 302 299 299 297 296 295 294 293 293 293 293 293 294 294 295 294 294
320 322 322 329 319 317 316 314 313 314 315 314 315 314 315 317 317 318 317 317 317 316 314 311 308 305 302 299 298 297 296 295 294 293 293 293 293 293 294 294 294 294 293 293
316 318 323 323 331 331 317 315 315 315 315 314 315 315 317 317 320 319 317 316 316 314 312 309 306 302 298 297 297 296 295 294 293 293 293 293 293 293 293 293 292 292 292 292
325 326 328 324 331 324 317 315 315 317 318 316 315 315 316 317 319 318 316 315 314 311 308 304 299 298 298 297 296 295 294 294 293 293 292 293 293 293 292 291 291 291 291 291
325 328 324 328 324 326 314 315 318 319 316 316 316 317 317 318 315 314 315 313 310 307 300 298 297 298 297 296 294 293 293 293 293 292 292 292 292 292 292 291 291 291 291 289
323 323 325 322 323 317 315 315 318 316 316 317 316 316 316 317 314 313 312 309 303 298 297 298 298 297 296 294 293 292 292 292 292 292 292 292 291 290 291 291 291 290 288 288
319 317 319 319 316 315 315 315 315 315 315 315 315 315 315 315 314 311 308 301 298 297 297 297 296 296 294 293 292 292 292 292 292 292 292 291 290 289 288 289 289 289 288 288
319 317 317 317 315 314 315 316 316 316 315 314 313 314 314 314 312 305 300 298 297 296 297 297 295 294 293 292 292 292 291 291 291 291 291 291 290 288 287 287 288 288 288 288
317 317 319 320 316 316 317 315 314 315 315 313 311 310 310 307 302 299 297 296 296 297 297 295 294 293 292 292 292 291 291 291 291 291 291 291 290 288 287 287 287 287 287 286

GFSCGP_925_thetae_054.txt.gz
Theta_e
321 321 322 320 321 320 320 320 321 321 320 319 319 321 323 324 327 330 329 329 328 328 328 328 328 328 328 329 334 332 329 325 323 321 323 322 321 320 316 315 315 314 314 314
321 324 322 321 321 321 319 320 318 318 317 318 319 320 321 323 324 329 330 330 330 330 330 330 331 331 331 334 332 329 329 326 326 327 327 324 321 318 315 315 315 315 314 313
324 324 323 323 319 318 321 323 324 320 318 318 321 319 322 323 325 327 328 329 330 331 332 333 333 333 333 332 332 330 330 328 328 327 323 322 319 317 315 315 315 314 313 312
323 322 323 322 319 320 324 323 322 322 323 319 322 324 327 324 327 328 329 329 330 331 332 333 334 332 331 330 329 330 330 329 326 321 320 319 317 316 316 316 315 314 313 311
323 322 322 320 320 323 324 320 324 320 320 324 323 324 326 324 326 328 329 331 332 332 332 332 333 332 332 331 331 329 325 324 321 319 318 317 318 317 316 315 313 311 310 309
320 322 322 323 320 321 324 324 324 322 324 327 324 326 326 325 326 328 329 330 331 331 331 329 329 328 327 326 325 324 322 320 319 319 318 318 317 315 312 310 309 308 307 305
321 320 321 322 321 322 322 324 327 333 333 328 321 325 327 326 327 328 329 330 331 330 328 325 324 323 323 322 321 320 319 319 318 318 318 317 313 310 309 309 308 306 305 304
323 324 322 321 321 326 326 321 330 330 333 328 326 322 326 325 324 328 328 328 330 330 325 323 322 322 322 322 321 320 319 318 318 317 314 311 309 308 308 306 306 305 304 304
325 323 322 322 320 324 323 323 324 322 323 329 322 319 327 324 324 326 328 329 330 330 325 323 322 322 322 321 321 320 319 318 317 314 310 308 307 306 305 305 304 304 303 301
324 328 324 322 321 321 321 321 325 323 326 326 319 320 327 325 323 325 328 329 330 328 325 323 322 322 322 321 321 320 319 316 312 309 308 307 305 304 305 304 302 301 300 298
323 326 324 322 322 318 323 323 321 319 326 330 331 323 326 323 324 324 326 328 329 326 324 323 323 323 322 321 320 319 318 311 308 307 304 303 305 304 302 301 300 299 298 297
321 323 325 323 321 321 321 322 322 331 323 326 329 324 320 322 323 323 323 326 327 325 324 324 323 323 322 321 319 317 313 309 306 305 304 303 303 301 300 299 298 298 297 297
323 324 326 322 323 322 321 320 320 322 327 326 336 325 321 320 321 321 322 325 324 324 324 324 324 322 321 319 316 313 309 306 305 303 303 301 300 299 298 298 298 297 296 296
323 323 321 325 321 323 324 322 320 321 333 326 325 321 319 321 319 319 320 321 324 324 324 324 322 320 318 316 313 310 307 305 302 302 300 299 298 298 298 298 297 297 296 296
323 321 319 319 320 321 322 322 321 320 321 324 324 319 318 318 320 319 319 320 322 323 324 322 320 318 315 313 310 308 305 303 302 300 299 297 297 297 296 296 296 296 296 296
324 326 324 326 323 322 322 320 320 320 320 319 320 319 319 319 318 317 317 319 319 322 322 320 319 317 314 311 309 306 304 302 300 298 297 296 295 295 294 294 294 295 295 295
326 328 329 329 321 319 322 321 319 319 319 319 320 320 319 318 318 318 317 317 319 320 320 319 318 315 312 310 307 304 302 299 298 296 295 295 294 294 294 294 294 294 295 295
328 330 332 332 318 325 318 317 316 316 316 316 316 317 317 318 318 317 317 318 319 318 319 318 316 313 310 306 303 300 299 297 296 295 294 294 294 293 293 294 294 295 295 294
324 328 329 327 324 319 318 316 315 315 316 316 316 316 317 318 317 317 317 318 318 318 317 315 312 309 305 302 300 299 298 297 295 294 294 293 293 293 293 294 294 293 293 293
318 325 328 328 330 327 320 316 315 315 319 315 314 316 317 316 321 320 318 316 316 316 315 312 308 305 302 299 298 298 297 296 294 294 293 293 293 293 293 293 293 292 291 291
326 327 327 326 328 327 320 317 315 319 323 316 316 315 317 317 321 318 317 316 315 314 311 307 303 300 299 298 296 296 295 294 294 293 293 293 293 293 293 293 292 292 292 292
326 330 324 331 326 327 317 315 318 321 319 317 317 319 321 319 317 316 316 314 311 303 301 300 299 299 297 296 295 294 293 293 293 293 293 292 293 292 292 291 292 292 292 290
326 326 330 327 326 321 316 318 319 317 316 316 317 317 316 317 316 314 313 307 301 300 299 299 299 297 296 295 294 293 293 293 293 292 292 292 292 292 290 290 289 290 290 289
321 320 325 322 317 317 316 316 317 316 317 316 316 315 315 316 316 313 305 302 299 299 299 297 297 296 295 294 293 293 293 292 292 292 292 292 292 291 290 289 288 288 289 289
322 320 319 319 318 316 318 317 316 316 316 315 314 314 315 315 312 305 301 300 299 298 298 297 296 295 295 293 293 293 292 292 292 292 292 292 292 292 290 289 288 287 287 287
319 319 325 326 318 319 318 315 314 315 314 312 310 306 305 304 302 300 299 298 298 297 298 297 296 294 294 293 293 292 292 292 292 292 291 291 291 290 289 288 288 287 287 287

GFSCGP_925_thetae_060.txt.gz
Theta_e
318 318 318 318 319 320 320 320 319 318 317 322 319 319 320 322 323 324 328 330 330 327 325 327 327 325 326 326 327 329 330 328 327 326 322 320 320 318 314 312 314 314 313 313
319 319 320 321 321 322 322 322 321 318 316 320 317 318 322 324 325 324 322 320 320 321 320 322 324 327 327 327 328 329 330 327 327 326 323 321 322 318 313 314 314 314 313 312
320 320 321 321 322 322 322 322 320 319 318 318 315 320 321 323 323 322 322 321 320 323 325 324 326 329 329 328 328 328 328 327 326 325 323 322 320 318 315 314 314 313 313 312
320 320 321 321 321 321 321 320 321 320 317 315 317 319 320 319 326 324 323 323 322 325 326 329 329 329 329 327 327 327 327 327 326 324 323 322 319 315 315 314 314 313 313 312
320 320 321 321 321 320 322 320 321 321 320 320 320 318 316 320 322 324 324 324 324 326 326 330 330 329 329 328 328 328 328 326 324 323 326 324 318 315 315 314 314 313 312 311
318 319 319 319 320 320 320 321 322 322 321 323 322 320 318 319 321 322 323 324 325 326 327 329 330 330 330 330 330 329 327 326 325 326 326 322 317 316 315 314 313 312 307 306
319 320 319 321 321 320 320 320 322 322 322 324 322 322 320 319 319 319 322 323 324 326 329 328 327 328 328 329 329 328 327 326 326 326 324 318 316 315 315 312 308 305 304 303
319 320 320 320 320 320 323 320 321 324 324 321 324 324 323 321 319 322 322 324 326 329 330 328 327 326 327 328 328 328 327 318 317 317 316 314 310 310 309 307 305 304 304 304
320 323 322 321 321 319 321 323 323 325 322 321 319 320 322 322 321 322 322 325 325 325 327 326 324 324 325 325 326 327 319 317 316 315 312 310 309 308 306 306 305 306 306 302
320 324 322 322 321 319 319 320 324 323 319 319 318 319 323 323 326 323 322 325 324 321 322 322 322 320 320 319 320 319 318 317 316 315 312 310 307 306 306 306 305 303 300 299
320 319 319 323 322 320 319 319 320 319 318 319 320 318 317 321 323 323 322 325 324 320 320 320 321 320 320 321 319 318 318 317 313 311 309 307 305 305 305 303 302 300 299 298
320 320 322 322 321 321 318 319 319 318 318 319 316 317 315 318 319 322 322 324 324 321 318 318 320 319 319 320 319 318 316 314 310 307 306 306 306 304 302 300 300 299 297 297
320 320 320 322 319 318 321 317 318 319 316 317 316 317 315 316 317 317 320 322 323 322 318 316 318 318 319 318 314 311 308 307 306 306 305 304 303 303 299 299 297 297 297 296
318 320 318 322 319 317 320 320 317 316 315 317 318 318 318 315 316 316 315 318 322 322 319 316 318 318 318 311 307 306 306 306 307 305 303 302 299 298 298 297 296 295 295 295
318 319 319 317 318 320 320 320 320 319 318 318 317 318 317 315 314 313 313 316 319 319 318 318 317 315 309 307 306 306 306 307 304 302 300 297 296 296 295 295 294 293 293 294
319 318 318 320 317 317 318 317 317 318 317 317 317 316 315 314 312 313 313 313 317 317 318 316 315 312 309 307 306 306 305 302 299 296 295 295 294 294 293 294 296 296 293 294
320 320 316 319 313 316 316 316 316 317 316 316 316 314 313 312 311 311 313 312 317 317 317 316 314 311 309 307 305 303 300 297 296 295 294 294 294 294 297 298 294 293 293 294
320 319 313 314 311 316 318 315 315 314 312 312 314 314 313 312 312 311 311 314 315 314 313 311 309 307 305 304 302 298 296 295 294 294 294 295 296 298 295 293 293 293 293 293
320 315 316 313 315 316 316 315 310 312 313 312 314 313 313 312 312 312 310 310 310 307 304 302 301 300 300 298 297 296 295 294 294 294 296 297 296 293 293 293 293 293 293 293
317 313 315 315 312 313 314 313 312 310 312 314 312 313 312 312 312 313 304 305 302 300 298 297 296 296 295 295 295 294 295 295 294 296 298 298 294 293 293 293 292 292 292 291
311 311 312 306 307 310 312 314 312 311 310 313 315 315 315 315 311 304 299 298 297 296 295 295 295 294 294 294 294 294 296 297 296 295 293 293 293 293 292 292 292 292 291 289
315 314 312 310 306 315 314 313 313 310 312 314 315 313 312 308 301 300 298 297 296 295 295 294 294 294 295 296 299 299 298 296 294 293 293 293 292 292 292 292 292 291 290 289
318 313 314 315 314 312 314 314 312 312 312 313 312 313 309 303 300 298 297 296 295 295 294 295 295 296 297 297 296 294 293 293 292 292 292 292 292 292 292 292 291 290 290 289
319 318 318 318 316 315 314 313 312 311 311 309 310 311 308 300 298 298 297 296 296 296 296 296 296 296 295 294 294 294 293 293 292 292 292 292 291 291 291 291 291 290 289 289
316 316 316 316 316 315 314 313 311 304 302 301 300 304 300 299 298 298 297 297 297 297 296 296 296 295 294 294 293 292 292 292 292 292 292 291 291 291 291 291 291 290 290 290
314 315 314 313 315 312 313 309 306 303 301 300 299 298 298 298 298 298 298 297 297 297 296 296 296 294 293 292 292 291 291 290 290 290 291 291 291 291 291 291 291 291 291 291

GFSCGP_925_thetae_066.txt.gz
Theta_e
316 315 316 315 314 316 318 319 318 316 315 318 318 319 325 324 327 331 331 329 328 328 327 327 327 327 328 327 327 326 328 328 326 326 326 325 323 322 321 320 319 315 312 311
316 317 315 316 318 319 320 320 319 317 316 317 317 318 316 325 329 327 331 330 328 326 322 323 325 327 327 327 326 325 326 326 326 326 326 324 320 318 318 318 314 312 313 312
317 317 316 319 320 320 319 320 319 319 316 316 316 317 318 320 325 323 327 329 329 327 324 321 323 326 327 326 327 326 325 325 325 325 323 320 317 317 313 313 313 313 313 313
317 316 318 319 320 318 320 317 318 319 315 316 314 317 316 319 325 323 324 327 328 327 323 321 322 324 324 324 325 325 325 326 325 325 322 321 318 315 313 312 313 313 312 311
316 319 319 319 318 318 318 318 319 319 317 317 317 315 314 320 325 325 322 325 325 326 324 321 321 324 324 324 324 324 324 325 325 324 322 321 319 318 315 313 313 313 312 310
315 316 317 318 318 317 318 320 316 315 317 320 318 317 316 317 323 323 323 321 323 320 320 320 320 323 324 324 324 324 324 324 325 324 322 321 321 319 316 313 313 312 310 309
317 318 317 318 319 317 317 316 318 318 319 320 318 319 318 317 315 318 322 322 319 318 318 318 321 324 325 324 325 324 324 324 325 324 322 322 321 319 317 314 313 311 310 308
316 315 317 317 317 317 319 316 317 321 320 318 317 321 318 317 317 315 313 319 317 317 320 322 322 325 326 325 325 325 325 324 325 325 324 323 321 320 316 314 313 311 310 306
316 317 318 320 319 317 320 319 316 318 316 320 317 315 312 315 319 321 323 318 317 319 321 324 324 325 325 325 325 324 324 324 325 325 324 322 322 323 316 313 312 309 305 305
314 317 320 320 320 317 317 317 319 317 322 319 314 315 314 315 316 320 324 321 320 320 321 324 325 325 326 326 325 324 324 325 326 326 324 323 323 318 315 313 306 305 306 306
314 313 315 320 320 318 319 318 316 316 314 318 318 315 312 316 317 318 319 319 321 322 324 324 325 326 326 325 325 325 325 326 326 324 323 321 315 311 309 306 306 306 307 308
315 313 313 317 317 316 316 317 316 317 317 315 314 315 312 311 312 316 318 317 320 321 323 324 324 324 323 323 323 324 324 323 318 314 311 308 307 305 305 305 305 306 302 300
316 314 314 314 315 317 320 317 316 314 312 317 315 317 312 311 311 314 315 316 318 319 320 320 320 320 320 319 318 319 317 313 309 308 306 305 305 305 306 309 309 301 299 297
315 315 314 315 315 315 319 317 316 316 315 316 314 315 313 312 313 312 312 312 316 319 319 320 319 317 316 315 315 314 311 309 307 306 306 305 305 307 307 304 299 297 296 296
315 316 315 315 315 315 315 316 314 315 314 316 316 313 313 313 312 311 310 309 315 319 317 317 316 314 311 309 309 308 307 307 307 305 305 306 306 303 298 296 296 294 293 294
313 316 315 317 316 316 319 317 315 315 315 314 314 314 311 311 308 310 308 308 310 316 318 314 314 311 310 307 306 306 306 305 306 305 306 304 299 296 295 294 295 295 295 293
315 315 313 317 313 315 315 314 315 315 314 314 315 313 311 312 311 311 309 309 313 316 315 313 312 309 308 307 306 306 306 305 305 305 300 296 294 294 296 296 295 293 293 293
315 313 310 313 310 312 314 313 313 314 312 311 310 312 311 310 309 305 303 308 313 313 312 309 307 306 306 306 306 305 305 304 300 296 294 294 295 297 296 294 294 293 292 292
315 311 312 316 314 313 315 314 313 312 312 309 310 311 311 310 310 308 299 298 299 300 299 299 302 302 301 300 300 301 298 296 294 294 295 297 298 295 297 295 293 292 292 292
312 310 313 308 313 315 314 314 309 309 311 309 310 311 311 308 307 307 297 295 294 294 294 294 295 295 296 295 297 295 293 294 296 297 297 297 296 295 294 293 292 292 291 291
314 309 312 305 309 313 313 311 307 311 311 308 309 310 309 308 303 297 295 294 293 293 293 293 293 292 293 293 294 294 295 295 296 297 296 294 293 293 292 292 291 291 291 291
320 317 310 305 308 319 310 311 310 309 310 310 308 308 307 299 297 296 294 293 292 292 292 293 293 293 294 295 297 296 296 296 295 293 293 292 292 291 291 291 291 291 291 291
320 318 317 316 316 314 309 310 308 307 311 311 310 307 302 298 297 295 293 292 292 292 293 295 294 294 294 295 295 293 292 292 292 292 291 291 291 291 290 290 290 290 290 289
315 312 314 314 314 312 312 312 310 310 311 309 307 302 300 298 296 294 293 292 293 294 294 294 293 292 290 291 291 291 291 291 291 290 289 289 288 287 286 286 285 285 285 286
315 315 314 312 314 314 312 310 308 306 306 305 301 300 298 297 295 294 293 293 293 294 294 293 291 289 289 290 289 288 288 288 287 286 284 283 282 282 282 282 282 283 284 285
313 315 315 316 313 313 312 307 304 305 304 302 299 298 296 296 295 294 294 294 294 293 291 290 290 290 288 286 285 285 285 284 283 282 281 280 280 280 280 281 281 282 282 282

GFSCGP_925_thetae_072.txt.gz
Theta_e
321 323 323 320 320 320 320 321 321 321 321 322 322 322 325 331 331 329 328 328 331 329 327 325 326 325 324 323 324 326 329 330 330 327 324 325 327 328 326 326 325 323 320 320
322 323 322 320 320 321 321 321 322 321 321 321 323 323 323 330 332 331 330 329 328 331 327 326 325 326 325 325 326 327 329 330 329 325 324 326 328 326 327 326 322 320 319 318
321 321 320 321 321 322 321 322 322 321 322 322 322 323 323 325 329 331 331 330 330 328 330 327 326 326 326 325 325 327 328 329 329 328 324 327 327 325 325 324 319 317 318 315
320 320 320 321 321 322 323 322 322 322 323 323 321 321 321 323 326 329 331 332 332 331 328 329 327 327 327 327 326 326 327 329 330 329 327 325 325 326 325 322 318 315 313 314
320 320 321 321 322 322 322 321 323 323 324 323 323 321 322 322 323 324 328 331 333 333 331 329 329 327 327 327 328 329 329 330 330 329 328 327 327 326 321 318 316 314 314 314
320 320 321 321 321 321 321 323 324 324 324 325 323 322 321 321 322 323 324 326 331 332 333 332 328 327 328 329 330 329 329 329 328 328 328 327 327 323 319 317 316 315 315 315
320 320 320 321 322 321 322 324 326 327 326 325 323 323 322 321 322 323 323 323 326 329 332 333 332 330 328 328 329 329 329 328 328 327 327 326 326 324 320 318 316 317 315 314
321 321 320 320 321 321 323 324 325 323 324 323 321 321 321 322 322 321 324 325 324 326 328 332 333 331 329 328 328 328 329 329 328 328 327 325 325 324 322 319 318 317 316 315
320 319 319 320 321 321 324 324 323 325 324 325 321 321 319 320 320 323 325 326 328 325 326 328 330 331 330 329 328 328 328 328 328 327 326 326 325 324 322 321 321 319 317 315
319 319 319 322 321 321 323 323 324 324 324 323 321 321 320 319 320 323 321 321 327 325 325 326 328 329 330 330 329 328 328 328 327 327 326 324 325 324 322 321 320 318 315 310
319 320 323 323 323 322 324 324 323 323 323 324 323 322 320 319 320 321 322 324 324 328 326 325 326 326 328 329 329 329 328 327 328 327 325 324 324 323 321 320 317 314 310 307
319 320 321 321 321 321 322 322 324 323 323 324 324 322 320 320 321 322 322 322 324 325 328 327 327 327 327 329 329 328 328 328 328 327 325 324 323 319 315 311 310 309 307 305
319 320 321 320 320 321 322 322 323 323 323 322 328 323 321 321 321 322 322 321 323 324 327 329 329 330 328 328 328 329 329 327 325 324 320 316 315 313 310 308 307 306 306 307
319 320 320 321 318 318 320 319 320 321 324 321 321 321 320 321 322 321 321 321 322 321 323 327 330 330 330 329 329 328 327 324 319 317 314 312 310 308 307 306 306 307 307 302
320 320 320 319 317 317 318 318 319 320 320 320 321 320 319 321 321 321 321 319 319 319 320 323 328 331 330 329 328 326 320 315 313 312 309 308 306 306 306 307 307 305 298 298
320 320 320 320 319 319 319 319 319 320 320 321 322 320 319 320 320 321 320 318 319 318 318 319 324 329 327 325 324 318 315 313 312 311 309 306 303 306 305 303 298 297 297 296
322 321 321 321 320 320 323 321 320 321 321 321 321 320 319 320 320 320 320 318 319 320 321 321 324 325 323 321 318 315 313 311 309 307 304 302 304 301 297 296 296 295 297 299
323 322 323 322 321 331 320 319 320 321 321 321 321 320 320 318 319 317 315 318 320 321 320 320 321 320 319 318 317 315 313 310 307 305 301 299 296 296 296 297 297 299 301 298
322 323 325 332 324 320 319 316 320 320 321 320 320 319 317 317 316 317 312 311 316 316 316 316 316 316 316 314 312 310 306 304 302 300 296 295 296 297 299 299 300 299 297 296
319 321 326 322 334 333 320 319 318 318 323 320 319 319 318 317 321 320 312 310 310 310 310 310 310 310 310 309 307 305 303 300 298 296 297 298 299 298 299 298 296 295 294 294
322 322 328 327 334 324 320 316 317 322 323 319 318 318 319 319 318 315 309 309 308 307 306 307 308 308 307 306 305 302 299 297 297 298 296 296 297 297 295 294 294 293 293 293
324 326 328 326 335 332 316 314 320 322 320 319 318 318 319 315 309 309 308 306 306 305 304 305 305 304 303 302 301 300 299 298 297 297 296 295 294 292 293 293 293 292 292 290
325 324 325 324 325 324 317 320 318 319 320 318 318 318 318 311 309 307 307 306 305 304 303 303 302 301 300 299 298 298 297 296 295 294 293 292 291 290 289 290 289 288 287 287
320 319 323 323 321 321 321 318 315 315 316 316 316 317 314 311 308 306 305 304 304 303 302 300 300 298 297 296 296 295 294 294 293 291 290 289 287 287 286 286 286 286 286 286
320 320 321 322 322 319 319 319 319 316 316 315 314 314 313 310 307 305 304 303 302 300 299 299 298 296 295 293 292 291 291 290 289 288 286 286 286 285 285 285 284 284 283 282
320 322 324 325 322 322 322 321 319 318 317 316 313 311 311 308 306 304 303 302 300 298 298 297 296 294 292 290 288 287 287 287 286 286 285 284 285 284 284 284 284 281 280 280

GFSCGP_925_thetae_078.txt.gz
Theta_e
321 322 322 322 323 323 322 322 322 323 323 323 324 320 323 327 327 329 325 323 325 326 326 324 323 323 322 319 318 318 317 317 316 320 322 323 323 324 321 318 323 325 328 328
322 323 322 322 323 322 321 321 322 322 322 324 322 321 323 327 327 329 330 324 324 328 326 326 326 325 324 321 321 321 321 320 322 323 325 324 325 324 322 324 326 327 327 327
323 322 323 321 323 322 321 322 323 324 323 324 323 322 323 325 326 330 328 330 326 327 328 326 325 326 325 324 324 325 325 324 326 325 327 324 325 325 326 326 327 328 327 326
321 321 322 323 323 322 323 322 323 322 323 324 325 326 324 324 326 328 331 329 329 328 328 327 326 326 324 325 324 324 324 327 329 328 326 324 325 327 328 327 327 327 325 323
321 321 321 322 322 322 323 323 324 323 324 325 326 327 322 324 325 327 330 331 329 329 328 327 327 328 327 324 323 324 325 328 329 329 328 323 326 327 327 328 327 325 323 323
320 320 321 321 322 322 322 323 324 324 325 328 325 325 325 324 324 323 327 330 330 329 328 327 327 327 327 327 325 326 328 330 330 330 328 327 328 327 328 328 326 324 321 321
319 319 320 320 321 322 322 324 328 332 332 331 325 325 326 325 324 322 323 326 330 330 330 328 328 327 328 328 328 329 329 329 330 330 331 329 329 327 328 327 325 322 320 319
321 321 320 321 322 324 323 324 330 332 335 333 329 326 322 323 322 322 321 322 327 329 331 330 328 327 327 328 329 329 329 329 329 332 332 329 331 329 329 328 325 322 321 320
321 321 320 321 321 322 324 325 325 328 327 334 330 326 326 322 321 320 320 322 324 325 329 331 330 329 328 328 330 330 331 331 330 332 333 331 330 331 330 327 324 323 322 320
321 324 321 321 321 322 323 324 328 326 331 330 323 324 327 324 322 321 322 323 326 328 328 328 330 331 329 329 329 331 331 331 331 331 332 332 330 331 330 327 325 324 322 320
321 323 323 321 322 322 322 323 327 326 326 330 332 326 326 324 322 322 321 323 323 323 328 328 328 329 332 330 330 332 332 332 332 331 332 332 331 330 328 328 326 324 321 320
320 322 324 322 322 321 321 323 325 329 326 329 332 329 324 323 322 322 321 322 322 323 324 326 327 328 329 333 331 332 332 332 332 331 332 332 330 328 327 326 324 323 322 319
321 321 324 323 322 322 322 322 323 324 325 327 332 327 324 322 321 322 323 322 322 323 323 326 327 328 328 329 334 333 333 332 332 331 331 329 327 327 326 325 323 321 317 314
322 323 323 326 324 323 322 321 321 326 329 328 328 325 322 322 322 322 322 324 323 322 322 323 327 328 328 329 331 332 334 333 331 330 327 324 324 323 320 318 316 314 313 311
322 323 324 321 320 320 321 322 321 321 321 323 324 322 322 321 320 321 323 324 323 322 321 321 322 328 329 330 331 332 331 328 326 325 320 316 315 315 314 315 313 312 310 309
321 324 323 324 320 321 321 320 320 320 320 319 321 321 320 320 320 322 321 320 320 322 321 322 321 323 331 332 331 328 325 321 318 314 311 312 311 311 310 309 308 309 308 307
324 324 324 326 322 320 321 321 320 319 319 320 320 321 321 321 320 321 321 321 320 320 322 323 323 323 333 328 323 319 317 316 313 311 310 309 309 307 306 306 306 306 306 304
320 322 325 326 324 326 321 321 320 320 320 320 320 320 320 320 320 320 321 321 321 323 323 323 324 329 325 320 317 316 315 312 310 309 308 306 305 303 304 305 306 304 300 299
318 320 326 328 326 323 321 321 321 321 321 321 320 320 320 320 321 320 321 320 320 324 324 324 326 325 321 318 315 312 311 310 308 307 305 304 303 303 303 301 301 300 301 302
318 319 321 329 328 329 325 321 320 321 322 321 321 321 322 322 324 322 319 320 323 322 323 324 324 320 318 315 312 311 309 307 307 306 305 304 303 301 301 300 301 303 303 301
321 322 324 325 329 326 322 320 320 324 324 322 323 323 322 321 323 321 319 320 319 320 320 322 322 320 318 314 312 310 309 308 307 306 304 301 300 300 302 302 302 299 297 296
323 325 327 327 329 329 321 321 322 323 325 325 324 323 323 324 322 321 319 318 318 317 318 319 319 318 316 314 312 310 309 307 304 301 301 302 302 301 300 298 296 296 295 295
323 321 325 325 326 326 322 322 323 324 326 325 326 324 323 323 321 319 318 317 315 315 315 316 316 314 312 311 310 308 305 303 303 302 301 299 297 297 297 296 295 293 292 291
315 321 325 325 321 321 325 323 323 323 323 324 323 323 322 323 320 318 317 315 314 314 314 314 312 310 308 308 307 304 303 302 301 299 298 296 294 293 292 291 290 290 290 289
318 317 319 321 320 319 320 322 324 324 324 322 321 321 321 322 319 317 315 314 313 313 312 310 309 307 305 304 303 302 301 300 299 297 294 292 290 290 289 289 288 288 287 286
317 317 320 325 321 323 322 322 323 325 322 322 321 321 320 321 318 316 314 314 312 310 309 308 306 304 302 301 299 299 298 296 294 292 290 289 288 288 288 287 285 284 283 283

GFSCGP_925_thetae_081.txt.gz
Theta_e
319 318 319 317 318 320 321 322 323 323 323 323 322 321 328 326 327 326 325 327 325 324 323 321 320 320 319 319 318 317 316 314 314 315 315 314 313 317 316 315 317 318 319 322
320 320 319 320 319 321 322 321 319 319 322 321 320 319 321 326 325 323 322 322 323 325 322 321 321 319 319 318 318 318 316 314 313 313 315 314 315 319 319 318 320 320 322 323
321 321 321 321 321 322 321 320 320 320 321 320 323 321 321 324 326 322 321 324 325 325 324 323 322 321 319 318 318 317 317 317 316 315 315 319 322 323 323 322 322 320 324 325
317 320 321 322 322 321 321 320 321 324 321 321 322 322 321 324 328 326 322 323 326 325 325 324 324 322 321 319 319 317 317 316 316 317 321 323 323 325 325 324 321 324 325 325
317 318 320 322 321 321 322 322 324 324 322 321 323 325 321 321 325 329 327 323 324 325 325 325 325 324 322 319 319 319 321 321 320 321 323 325 324 324 325 324 324 326 326 326
316 317 318 319 320 320 321 322 322 323 322 324 323 326 323 321 325 325 328 327 324 326 325 324 324 324 324 321 321 323 324 325 324 326 326 327 323 325 326 326 327 327 327 325
318 318 317 319 320 319 320 320 324 328 328 327 329 330 324 322 321 323 329 327 326 324 326 325 324 324 324 323 323 323 323 323 327 328 327 328 325 324 326 327 327 327 326 324
318 319 317 318 319 320 319 321 326 330 329 334 331 331 324 322 321 318 319 326 326 326 325 325 325 325 325 324 323 323 323 323 327 328 329 327 328 326 326 327 327 326 326 325
317 318 318 318 320 320 322 323 321 329 331 333 330 326 324 323 320 318 317 317 325 326 326 325 324 326 327 326 325 323 323 325 327 328 329 329 328 327 328 327 327 326 325 324
319 321 319 319 319 320 320 322 326 324 332 333 329 327 326 321 321 320 319 321 322 321 325 325 325 325 326 326 326 327 327 327 327 327 329 330 330 330 328 328 327 326 324 322
317 319 320 320 320 321 321 321 325 325 325 324 324 324 322 321 321 320 319 318 320 323 322 321 326 325 325 326 327 327 327 327 328 327 329 331 330 330 330 330 327 325 323 322
317 321 320 319 319 320 320 321 322 327 327 327 324 323 322 320 318 318 317 318 317 317 320 320 321 323 326 326 326 327 328 328 329 329 330 332 331 330 330 330 327 324 323 322
317 320 322 321 319 320 320 320 321 321 322 326 325 326 321 321 320 318 319 318 318 318 317 319 321 322 327 327 327 327 329 329 329 330 331 331 331 330 328 328 326 324 323 320
317 319 319 321 321 321 321 320 320 321 322 323 323 324 322 320 319 318 318 318 319 319 317 318 320 321 323 327 328 329 330 330 330 330 330 330 329 329 327 327 325 323 320 320
319 321 319 320 319 320 322 321 320 320 321 325 324 324 322 319 318 318 318 319 320 319 318 316 320 321 322 326 329 330 331 331 331 329 327 326 327 325 324 321 323 321 320 316
319 320 320 320 320 320 321 320 319 320 320 318 318 319 317 317 315 317 317 318 318 318 317 318 317 323 325 328 326 326 326 326 326 320 318 318 318 319 318 316 315 313 311 312
320 320 323 322 321 321 320 319 319 320 320 318 318 317 317 317 319 318 319 317 318 318 319 319 321 328 326 323 320 318 316 317 315 314 312 313 312 312 311 310 309 310 309 308
321 321 323 323 320 325 320 318 319 319 319 318 318 317 317 317 317 317 316 316 319 320 320 320 325 321 318 317 316 314 314 313 313 312 312 312 312 310 308 308 307 306 306 307
319 319 318 323 324 324 322 319 319 319 319 319 319 318 317 316 317 316 317 317 319 319 318 321 321 318 316 315 314 313 312 311 310 309 309 308 307 305 305 304 305 306 304 301
319 319 320 319 325 326 322 320 319 319 319 319 319 318 318 317 316 316 316 319 319 319 320 320 318 316 315 313 313 311 309 309 307 306 305 306 305 304 304 305 303 301 300 301
317 315 317 320 321 322 321 320 319 320 318 318 320 320 319 319 317 315 317 318 317 318 320 319 317 315 313 312 311 308 308 307 307 306 305 304 303 302 301 301 301 302 302 299
319 320 318 317 319 323 319 319 320 318 318 320 321 321 321 318 316 316 316 315 315 316 318 318 316 314 312 311 310 308 308 307 306 305 302 301 301 301 301 302 300 298 296 295
321 319 321 320 319 321 322 322 320 321 321 321 322 320 319 317 317 316 315 314 313 314 315 317 314 314 313 312 310 308 306 304 303 302 301 301 301 301 299 296 295 295 295 295
317 317 318 318 318 316 320 321 318 317 318 319 319 318 319 318 316 315 313 311 311 312 312 313 311 310 309 309 307 303 302 302 301 299 298 297 296 293 293 292 291 290 291 290
313 317 319 320 320 318 318 319 318 317 316 320 319 319 318 317 315 313 311 310 310 310 309 308 305 303 302 303 303 302 302 301 297 294 292 291 290 289 288 289 288 289 288 288
314 315 317 318 318 317 317 318 318 317 318 319 318 318 317 316 313 312 310 309 308 306 305 303 302 296 289 290 291 294 295 293 291 289 288 288 288 287 286 286 285 284 283 283

GFSCGP_925_thetae_084.txt.gz
Theta_e
317 317 319 315 316 318 319 320 320 319 320 323 322 321 322 322 327 329 327 327 325 324 323 322 321 320 319 318 318 317 317 319 318 317 314 317 319 317 317 318 317 321 320 322
318 320 319 316 317 318 319 320 320 318 318 320 321 318 319 324 327 329 327 325 324 323 322 321 320 320 320 319 318 317 317 317 316 315 315 316 315 315 315 315 317 319 318 319
315 319 319 319 319 320 320 319 319 318 318 319 320 319 322 324 325 325 324 324 323 323 322 321 320 319 319 318 318 317 316 316 315 315 315 315 315 315 316 316 317 317 317 318
312 314 319 320 320 320 321 319 319 321 320 320 320 321 319 323 325 324 322 321 323 323 322 320 320 319 318 318 317 317 316 315 314 314 314 315 315 317 320 318 316 316 316 318
314 316 318 320 320 320 321 320 321 323 322 320 320 322 320 324 328 324 322 322 323 323 322 321 320 321 319 318 317 317 316 315 314 314 314 315 318 319 319 319 318 317 318 320
312 313 315 318 319 319 320 320 321 321 320 323 327 326 322 320 325 326 322 323 324 323 322 321 321 322 320 318 317 318 317 317 316 315 315 316 318 321 322 324 323 323 322 321
314 313 313 316 317 317 319 319 321 324 325 324 329 329 324 322 319 326 326 322 325 324 323 323 323 322 322 319 318 318 317 317 316 316 317 318 321 323 323 324 324 324 323 325
317 317 315 316 316 318 318 319 322 327 327 329 329 327 325 321 319 319 325 325 322 325 324 323 323 323 322 320 318 317 317 319 320 321 321 322 322 323 324 324 324 324 323 324
317 317 315 316 316 317 319 319 320 326 329 329 328 327 322 320 319 319 321 325 324 322 325 323 322 323 323 322 318 317 319 320 322 323 324 325 325 325 324 324 324 324 324 324
317 318 316 316 316 316 319 320 322 324 331 331 328 328 326 320 320 319 317 325 325 324 324 324 323 323 323 324 322 319 320 322 322 323 325 326 327 327 326 325 324 325 325 325
313 317 318 317 318 317 319 321 323 323 325 328 325 322 318 319 320 318 318 319 322 324 324 324 324 324 324 323 323 322 322 322 322 321 324 326 327 327 327 327 326 325 325 324
313 315 317 318 317 317 317 319 322 326 327 324 322 321 319 318 318 317 315 316 316 321 324 324 323 323 324 325 325 325 323 322 322 323 324 326 327 328 328 326 325 324 323 322
314 316 319 319 317 317 318 318 320 324 323 326 325 323 320 318 320 319 316 314 315 315 317 320 322 323 323 324 325 325 325 325 325 326 326 326 327 328 328 326 325 326 324 323
315 317 317 319 318 319 321 320 320 322 323 322 323 321 320 319 319 318 316 315 314 315 315 316 317 320 323 324 324 325 325 326 326 326 327 327 328 329 328 326 324 327 320 322
319 318 318 318 318 319 319 319 320 321 321 321 320 321 320 320 319 317 315 316 316 316 315 314 317 318 322 324 324 325 325 326 327 327 327 327 327 327 327 324 327 324 321 321
318 318 318 319 318 319 322 320 319 319 319 319 321 320 319 319 316 315 316 316 316 316 316 314 316 318 320 324 325 326 326 327 328 327 327 326 324 322 320 321 316 317 315 314
318 319 317 318 319 320 321 320 320 320 319 319 319 318 316 315 314 313 314 314 316 316 315 316 319 321 325 326 325 323 321 323 324 322 319 318 317 316 318 319 317 313 312 311
319 321 317 316 319 325 321 318 319 320 319 317 316 316 315 315 315 315 314 314 316 317 319 325 322 317 318 319 317 317 316 316 314 314 315 317 318 316 313 312 311 310 308 308
320 320 319 323 320 321 320 319 318 319 318 317 316 316 316 315 315 316 316 316 316 316 318 321 318 316 315 313 313 313 313 314 315 313 313 313 314 312 310 308 307 306 306 307
319 317 318 318 321 321 319 318 318 318 319 317 316 317 318 314 315 315 317 318 317 319 320 317 316 314 314 313 314 312 311 311 310 310 311 311 310 309 307 306 305 305 306 303
314 313 317 318 321 318 319 319 318 322 318 317 317 318 316 316 314 313 317 318 317 319 317 316 315 312 311 312 313 309 309 308 309 309 308 307 306 306 306 305 305 303 300 299
317 314 310 314 315 319 317 319 319 317 318 318 318 319 316 316 315 317 317 316 317 316 315 314 312 311 311 312 312 308 307 307 307 306 305 304 303 302 303 302 301 300 298 295
318 315 315 314 315 315 318 321 319 319 319 319 319 319 317 315 315 315 315 314 314 315 314 314 311 310 311 311 310 307 306 306 304 302 300 300 301 300 301 300 298 295 293 291
315 316 316 317 318 318 318 320 319 316 317 317 317 319 316 316 315 314 312 311 312 311 310 312 310 307 305 307 307 305 304 302 300 295 294 294 295 293 293 294 293 292 291 290
310 316 315 315 316 317 317 316 316 316 317 317 317 317 318 315 314 312 310 310 308 306 304 303 296 292 292 297 299 298 297 298 293 290 289 289 289 288 287 287 286 288 288 288
310 314 316 316 316 317 315 316 315 316 316 316 318 318 317 314 312 310 309 307 305 302 293 291 289 289 288 289 290 291 291 292 289 288 287 286 286 285 285 285 284 283 283 283

GFSCGP_925_thetae_090.txt.gz
Theta_e
312 313 315 316 315 315 315 316 317 315 315 317 315 314 314 315 318 322 325 327 322 320 321 322 321 320 320 319 319 319 319 320 319 320 321 322 323 323 321 321 320 320 322 323
315 315 313 314 314 315 316 317 317 315 315 315 315 316 315 316 319 319 323 323 321 320 322 322 321 320 320 319 318 318 318 317 319 320 320 320 320 323 323 319 315 315 315 318
313 314 315 316 315 316 315 317 316 316 315 315 315 316 316 317 321 324 324 322 320 321 320 321 322 320 319 319 318 318 319 318 318 318 319 319 320 319 321 322 320 320 320 320
311 312 313 316 318 316 318 316 316 316 318 319 316 319 316 316 320 325 325 323 321 319 319 319 320 321 319 319 318 318 319 318 317 317 318 320 320 317 316 317 319 320 321 320
312 312 312 313 317 316 318 316 317 318 317 317 318 319 316 321 321 320 322 323 321 319 319 319 320 319 319 319 318 318 318 317 317 317 316 316 317 316 316 316 317 317 317 319
310 311 311 312 313 316 317 318 318 318 317 321 319 319 319 317 320 320 321 321 322 319 319 318 319 318 317 318 318 317 317 317 316 317 316 314 314 315 315 316 317 317 316 316
307 309 312 313 312 314 316 317 319 320 321 323 319 325 321 318 316 318 319 320 320 320 320 318 317 318 316 316 316 315 316 315 316 315 315 315 315 314 314 314 315 316 316 316
304 304 308 312 314 315 316 317 319 324 322 321 324 328 323 319 318 317 316 318 318 318 320 319 318 318 317 316 315 316 316 315 315 315 314 314 314 314 314 314 315 315 316 316
313 307 311 312 312 313 314 317 316 317 322 324 322 322 319 319 318 316 314 319 318 318 319 319 318 318 318 317 316 316 316 316 316 316 315 315 314 314 314 314 315 315 316 316
314 315 312 313 312 312 312 313 317 319 324 327 323 324 321 319 318 316 316 320 318 319 319 319 318 318 318 319 317 316 317 317 316 317 316 316 315 314 314 314 314 315 316 316
315 315 313 312 313 313 314 315 318 318 319 321 322 320 317 318 318 318 314 315 319 318 320 320 319 319 319 319 319 317 316 316 316 316 316 316 315 315 314 314 314 315 316 317
314 317 315 314 312 311 313 314 315 318 319 320 318 319 316 316 316 315 314 313 315 318 317 320 319 318 319 320 320 319 318 317 317 316 316 316 315 315 315 315 315 316 317 317
312 317 318 315 313 312 312 313 315 318 318 319 321 320 316 314 316 316 315 314 312 316 318 317 319 320 319 320 320 319 319 318 317 317 316 316 317 317 317 318 318 318 319 321
311 314 315 320 319 319 318 314 314 318 319 319 320 320 319 318 318 316 315 313 313 311 316 318 317 320 320 320 321 321 320 318 318 317 317 317 318 318 319 320 321 322 323 323
312 313 312 314 315 316 319 317 314 315 317 319 318 319 318 317 316 317 315 315 313 313 312 316 318 318 319 320 321 321 321 321 318 317 316 317 317 319 320 320 322 322 323 322
313 310 315 314 314 318 319 316 315 317 316 317 316 317 316 316 315 315 315 315 315 312 312 311 314 316 317 319 320 321 321 321 321 319 318 318 318 319 320 320 321 322 322 322
310 313 317 317 316 316 317 314 314 314 317 317 317 315 315 316 314 314 315 313 313 313 312 311 310 312 314 317 318 319 320 321 322 321 320 320 320 320 320 321 322 322 322 322
307 313 314 317 316 323 316 314 314 315 315 315 316 315 315 314 314 313 312 313 312 311 311 310 312 314 315 316 318 317 318 319 320 320 318 319 319 319 320 321 322 322 320 318
304 310 314 318 321 317 318 316 317 318 317 316 316 315 315 313 312 311 311 309 310 310 312 316 314 314 314 313 313 314 316 316 316 315 315 316 318 318 317 315 313 312 311 309
308 311 313 317 319 318 317 315 314 317 319 316 315 315 315 313 316 314 312 314 315 316 314 312 313 312 313 314 315 315 313 313 311 312 312 312 312 311 309 308 307 306 306 304
313 313 314 315 318 316 316 316 315 321 318 316 317 314 315 315 316 314 315 316 314 313 311 311 311 310 311 313 314 311 309 307 307 308 307 307 307 306 306 305 304 303 301 299
310 316 317 317 319 319 313 316 321 315 316 317 316 315 316 314 313 314 317 316 314 314 311 310 310 309 310 311 310 307 305 305 304 303 303 303 302 302 302 302 299 297 295 292
311 312 314 315 316 314 311 313 313 317 317 317 316 315 316 314 315 316 317 315 314 312 310 310 308 306 306 307 306 303 300 304 303 301 298 297 298 297 297 296 294 293 292 289
307 310 312 313 312 312 311 312 312 314 316 317 316 317 315 314 314 315 315 314 311 309 305 302 301 300 298 299 299 298 298 299 297 293 291 290 290 290 290 290 289 289 288 288
306 309 311 312 313 313 311 312 311 314 316 315 316 316 317 314 312 314 310 302 299 297 295 294 293 292 291 291 291 292 292 293 289 287 286 287 287 287 287 287 287 287 287 288
306 307 308 309 311 310 309 310 313 313 314 311 313 315 315 312 307 299 296 295 294 292 291 290 289 288 287 287 288 289 289 289 288 287 287 287 287 286 285 284 283 284 284 284

GFSCGP_925_thetae_093.txt.gz
Theta_e
313 314 319 318 318 316 316 317 318 318 317 317 318 317 318 319 318 322 329 332 328 326 323 322 322 321 320 320 321 321 321 322 322 322 322 322 323 322 322 324 320 322 323 323
314 312 315 316 316 318 318 318 319 318 316 317 318 318 319 318 319 321 323 329 329 326 323 322 320 321 319 319 319 320 320 320 320 320 320 321 321 321 322 324 321 322 322 323
312 315 314 315 316 317 318 319 320 318 317 317 317 319 320 319 320 322 323 325 328 326 324 323 322 321 320 319 319 319 319 319 320 320 320 321 322 322 322 322 323 322 319 319
313 313 314 315 316 317 317 317 318 318 318 319 318 321 320 320 320 320 325 326 326 325 323 323 323 321 320 320 319 318 318 319 319 319 318 322 321 321 320 320 319 318 317 317
314 312 313 314 317 317 318 317 318 319 319 319 319 322 321 318 321 322 322 326 326 325 324 323 322 322 321 321 319 318 318 318 318 318 319 319 318 320 320 319 318 318 315 316
310 310 312 313 313 317 317 318 318 319 320 324 321 322 322 321 322 322 322 322 326 325 324 322 321 321 321 320 319 319 318 317 317 317 318 317 318 318 318 319 320 318 316 315
310 311 311 312 313 316 317 319 319 323 324 324 320 322 322 321 320 320 322 321 325 325 324 323 322 321 319 319 319 318 318 318 317 317 317 317 318 317 317 316 317 318 319 318
306 305 311 311 315 315 316 318 319 321 324 323 324 327 324 323 322 320 320 320 322 324 324 323 322 320 319 318 318 318 318 318 317 316 316 316 316 316 317 317 316 316 317 317
315 308 311 309 313 315 316 318 317 318 322 324 323 324 322 321 322 319 319 318 321 323 324 324 322 320 319 318 317 317 317 317 317 317 316 315 315 315 314 314 315 316 316 317
313 319 312 312 311 313 314 316 320 319 320 319 321 324 321 321 321 321 320 320 322 321 322 323 322 321 320 319 318 316 316 316 316 317 317 316 315 315 314 315 315 316 316 316
313 317 317 315 313 315 314 315 316 319 321 321 321 322 323 323 322 321 322 320 319 322 322 322 322 321 320 320 319 318 317 318 317 317 317 316 316 315 315 315 315 315 316 317
315 316 318 317 315 313 313 315 315 318 318 322 321 320 318 321 321 320 321 319 316 322 322 322 322 321 320 320 320 319 318 318 318 318 317 317 316 315 315 315 315 315 315 316
305 314 315 317 315 316 317 316 317 317 317 318 322 321 317 316 318 319 319 320 317 317 321 322 322 322 321 321 321 320 319 319 319 318 317 317 316 316 316 315 316 315 315 315
307 311 308 312 317 314 316 316 314 318 321 319 319 317 320 320 320 320 319 320 318 316 319 322 323 323 321 321 321 321 320 319 319 318 318 317 317 316 316 316 316 316 316 317
311 312 312 311 310 310 313 313 313 317 320 319 317 318 319 319 320 321 321 319 317 317 315 320 322 323 323 322 322 321 321 320 319 319 318 318 317 317 318 317 318 319 319 320
306 315 313 312 311 312 312 313 316 318 319 319 316 317 318 319 318 318 319 318 319 319 317 316 319 321 322 322 322 322 322 321 319 319 318 318 317 317 318 319 319 320 321 321
305 308 314 314 314 315 318 315 317 319 318 317 319 319 317 317 317 319 319 318 317 318 316 316 315 317 320 321 321 321 321 321 320 319 318 317 317 317 318 318 319 320 321 321
305 308 309 312 315 318 314 314 317 317 316 316 318 318 317 318 318 317 317 317 317 316 316 315 312 315 316 317 317 317 318 320 320 320 318 318 319 318 319 319 319 319 319 318
305 306 308 311 314 315 309 317 317 319 320 317 315 316 317 317 314 316 314 313 315 315 313 316 316 316 316 316 316 316 316 315 316 317 317 318 318 318 317 315 313 312 312 310
305 306 308 312 315 314 313 316 317 317 321 319 318 319 317 317 320 319 314 315 318 316 316 315 315 315 315 315 315 315 313 311 310 311 311 312 313 311 309 308 307 305 305 301
307 306 308 310 312 314 314 316 318 320 322 318 319 319 318 317 318 317 318 315 312 311 312 313 313 313 313 313 311 309 308 306 306 307 308 307 307 306 306 304 303 302 299 297
312 311 310 310 314 313 314 317 318 317 316 316 318 318 319 317 316 319 317 315 313 311 311 311 310 310 309 308 307 305 302 301 302 302 300 299 298 297 297 297 293 292 290 288
307 310 315 314 311 315 313 313 313 316 315 317 319 318 317 316 318 317 315 313 311 309 307 306 305 303 303 304 303 299 298 297 297 295 292 291 292 292 291 291 290 289 289 287
306 308 312 312 311 312 312 312 312 312 314 315 317 317 317 318 316 315 313 307 304 303 302 299 297 295 294 294 295 295 293 293 292 291 290 289 288 288 288 288 288 288 288 287
306 308 310 310 309 311 312 311 310 312 314 315 315 317 316 315 308 304 302 299 297 296 295 294 293 291 290 290 290 290 290 291 290 290 288 287 286 286 285 285 284 284 285 285
306 307 309 309 308 310 311 309 309 313 310 308 312 316 314 308 303 298 295 294 293 292 291 291 290 289 289 288 289 289 289 290 289 288 287 287 286 285 284 284 283 282 282 282

GFSCGP_925_thetae_096.txt.gz
Theta_e
307 314 317 317 318 319 318 318 319 319 319 320 320 318 319 322 322 323 325 329 331 331 329 327 325 325 323 324 322 322 322 322 324 324 324 324 324 326 326 326 326 325 323 321
313 311 312 315 317 318 318 318 318 318 318 319 319 319 320 321 322 323 324 327 330 331 330 327 325 325 324 323 323 321 321 322 322 323 323 323 323 324 325 324 323 324 322 320
315 315 314 312 316 317 317 317 318 318 319 319 320 319 318 319 323 324 325 326 327 330 330 328 325 324 324 323 323 323 322 321 322 323 323 323 322 322 322 322 323 323 323 322
314 314 314 314 314 315 316 316 317 317 318 320 319 319 317 321 322 322 322 327 328 329 329 329 327 324 323 323 324 323 322 320 321 322 322 322 321 319 322 322 320 319 320 321
315 315 315 315 316 315 316 316 316 318 319 320 320 321 318 320 323 323 322 323 328 330 330 329 328 324 323 322 323 322 322 319 320 321 321 321 320 319 321 323 322 321 320 322
310 311 312 315 314 316 317 319 320 321 322 324 322 320 320 321 324 322 322 324 328 329 329 329 327 325 325 323 323 321 322 320 320 321 321 319 320 319 320 321 322 323 322 321
306 308 310 313 314 314 316 320 323 326 325 324 320 321 320 322 323 323 323 323 327 329 330 330 328 326 325 324 323 322 321 320 320 321 321 320 320 320 319 320 321 321 320 319
309 308 309 312 313 315 317 320 321 321 324 324 321 324 323 323 323 322 324 325 326 329 330 330 328 326 325 324 322 322 322 321 319 318 319 319 320 320 320 321 320 320 319 318
315 313 312 310 312 313 316 318 317 318 319 322 324 324 324 323 323 323 323 322 325 328 329 330 329 326 324 324 323 322 322 321 321 320 319 319 319 319 320 321 320 319 319 319
310 316 314 313 312 312 314 315 319 320 321 321 320 321 323 321 321 322 323 323 324 326 328 329 329 327 325 324 323 322 322 322 321 321 321 320 319 319 319 320 320 320 319 319
311 313 316 315 315 313 312 315 316 317 320 322 322 321 321 321 321 322 323 323 324 326 327 328 329 327 325 324 323 321 321 321 321 322 322 321 321 320 320 319 319 319 319 319
308 312 314 316 316 316 318 316 315 318 317 320 321 321 320 321 322 323 323 324 322 325 327 327 328 328 326 325 324 321 319 320 320 321 321 321 321 321 320 320 319 319 318 319
307 312 314 316 317 317 318 318 318 319 319 320 324 322 319 320 320 322 323 323 323 322 326 327 327 328 327 326 325 324 322 321 322 321 321 321 321 321 321 320 319 319 320 319
306 308 309 311 314 313 315 316 316 317 322 321 320 319 318 318 319 319 320 322 323 323 324 327 327 327 327 326 325 325 324 323 323 322 322 321 321 321 321 320 320 320 320 319
307 309 308 309 308 308 309 310 311 316 317 320 320 320 318 318 318 319 321 322 323 323 321 324 326 328 327 326 326 325 325 324 323 323 323 322 322 321 321 320 320 319 319 319
308 309 311 312 311 311 310 309 310 312 315 316 317 319 319 318 318 318 319 320 320 322 323 323 323 325 328 327 326 326 326 325 324 323 323 323 322 321 321 321 320 320 321 321
308 309 311 312 312 314 316 313 312 312 313 318 322 320 319 318 318 319 321 322 321 322 322 323 322 322 325 326 326 326 326 326 325 324 324 323 323 322 321 321 321 321 321 321
307 307 308 311 312 317 312 314 314 314 317 319 320 320 319 319 319 319 319 321 322 321 321 321 322 319 320 324 325 326 326 325 325 324 324 323 322 322 321 321 321 321 320 318
307 308 309 310 309 309 310 312 317 319 318 318 323 320 318 318 319 319 319 319 319 319 318 319 319 320 321 321 322 323 324 324 324 321 321 321 321 319 317 314 311 308 308 304
308 308 310 309 309 308 307 315 317 316 317 321 320 322 323 323 322 319 319 320 320 320 320 320 319 319 319 319 320 318 316 313 311 310 309 310 310 308 305 303 300 298 297 292
310 311 311 310 311 308 308 312 316 318 318 317 318 318 321 324 323 322 320 317 317 317 317 316 316 316 316 315 312 309 307 305 303 302 302 301 301 299 298 296 294 293 290 289
311 312 311 310 312 312 311 316 318 316 315 316 316 316 319 322 320 322 316 315 313 313 312 312 311 311 311 310 306 303 300 299 297 296 296 295 295 294 294 293 291 290 289 288
307 307 309 311 311 309 310 313 312 312 314 313 316 315 319 321 322 316 314 311 310 307 304 301 300 301 301 301 300 298 296 295 295 295 293 292 291 291 291 290 289 288 287 286
306 307 310 311 308 311 311 309 311 311 313 315 316 317 320 320 318 314 311 309 306 303 300 298 297 296 296 296 295 295 296 295 294 293 292 291 290 289 288 287 287 287 287 286
307 307 307 308 308 308 308 310 309 310 313 313 313 318 320 316 314 309 306 304 302 298 297 296 295 295 294 294 295 296 296 295 293 291 291 289 288 286 284 284 284 284 283 286
308 308 308 309 308 308 307 307 309 310 313 311 312 319 316 312 308 304 299 297 296 295 294 293 293 293 293 293 294 294 295 294 292 291 290 289 289 287 285 283 281 280 280 280

GFSCGP_925_thetae_099.txt.gz
Theta_e
311 311 311 313 317 317 319 321 323 322 323 322 322 323 322 321 321 323 324 324 325 328 331 331 330 329 328 326 326 324 326 324 324 324 325 326 327 327 328 329 328 326 325 323
314 313 313 312 314 317 318 320 322 321 321 322 322 323 322 321 321 321 323 324 324 327 331 332 330 329 327 326 326 324 324 324 324 324 324 324 326 327 328 328 327 326 324 320
316 317 314 313 314 315 318 320 322 322 321 321 321 322 322 322 321 320 321 324 324 325 331 332 330 329 328 326 326 325 324 325 322 323 324 324 324 325 326 326 325 323 322 320
314 315 316 315 314 314 316 317 318 319 320 322 321 324 323 322 320 321 323 324 325 325 328 332 331 329 329 327 326 326 325 323 323 323 324 324 325 323 324 324 324 323 321 319
313 315 316 317 315 315 315 316 317 317 320 321 321 322 322 323 322 321 323 323 323 326 329 331 331 328 328 328 326 325 325 323 324 323 324 323 322 322 323 323 323 323 322 321
310 312 315 316 316 316 315 316 317 319 320 323 322 323 324 323 322 324 324 323 324 326 330 331 331 328 327 327 325 324 324 322 322 322 323 323 322 321 322 322 322 322 322 322
312 310 310 312 313 315 315 317 320 322 325 326 323 324 324 322 322 324 323 324 326 328 330 331 331 330 328 327 325 325 324 322 322 322 322 321 320 320 322 323 322 321 321 321
314 313 310 309 311 314 316 317 323 321 324 326 325 324 323 323 322 323 324 324 325 328 330 331 331 330 328 328 327 324 324 323 322 323 323 322 322 320 319 322 323 322 322 322
316 316 313 309 309 312 313 318 318 321 321 324 327 324 323 324 323 323 323 323 324 328 330 331 331 330 328 328 327 326 325 324 323 323 324 323 322 321 319 320 321 322 323 323
315 316 315 313 311 311 313 314 318 319 323 323 321 322 324 324 322 323 324 324 324 325 329 331 331 331 328 328 327 326 325 325 324 323 323 323 322 322 321 320 321 323 322 320
308 315 316 315 316 314 312 314 315 317 318 322 324 324 323 323 322 323 323 324 324 325 328 330 331 330 329 328 327 326 325 325 324 324 323 323 323 323 322 322 323 322 321 321
307 312 317 315 315 316 318 314 315 319 318 318 322 323 322 322 321 322 325 324 325 325 327 329 331 331 330 328 327 327 326 325 325 324 324 323 323 323 321 322 322 322 322 321
310 309 312 313 314 316 317 318 318 317 317 317 322 321 321 321 322 321 321 323 324 324 328 329 330 331 331 329 328 327 326 325 324 324 324 324 324 324 323 323 322 322 321 321
307 308 310 313 313 314 317 318 319 319 322 320 319 318 319 319 320 319 320 321 322 325 325 328 330 330 330 329 328 327 326 324 324 323 324 324 324 324 324 324 324 323 323 322
308 310 308 308 308 309 310 311 312 314 316 320 320 320 320 320 319 319 320 319 321 323 324 326 328 329 330 330 329 328 327 326 324 324 324 324 324 324 324 324 324 323 323 322
306 310 309 308 308 309 310 310 310 310 312 314 316 318 317 317 318 319 320 319 320 320 322 324 325 328 329 329 329 329 328 328 326 326 325 325 324 324 324 324 323 323 323 323
310 310 309 312 308 308 313 310 309 309 309 310 314 315 316 319 319 318 319 319 319 321 321 322 324 325 327 328 328 328 328 328 327 327 326 326 325 325 324 324 323 323 323 322
308 309 310 311 311 314 311 312 313 314 313 311 310 310 316 318 320 319 319 319 319 321 322 322 323 324 324 327 328 328 328 328 328 327 326 326 326 325 325 324 319 317 318 315
307 308 311 310 310 309 308 310 312 315 317 316 318 319 322 323 321 320 319 319 320 322 322 321 322 322 322 324 327 328 328 328 328 327 327 326 326 320 312 309 305 303 303 298
307 308 311 311 310 310 308 314 315 317 321 320 319 320 322 322 327 322 321 321 323 322 322 322 323 323 323 324 326 327 327 322 314 311 308 308 309 306 301 299 297 294 293 290
312 312 311 311 312 310 309 309 313 318 320 318 317 317 318 322 323 323 324 322 322 321 321 321 322 323 321 319 315 310 306 304 302 302 302 300 299 298 295 293 292 291 289 288
313 314 313 311 314 315 309 311 314 316 315 315 315 316 318 318 318 323 319 317 317 316 316 316 316 313 311 309 305 302 300 298 297 296 295 294 293 292 291 290 289 288 287 286
312 311 313 312 312 309 309 313 313 312 312 315 314 316 316 317 318 317 314 312 309 307 306 305 304 302 302 301 299 297 296 295 294 294 292 292 291 291 290 289 289 288 287 286
309 308 309 310 310 310 310 311 308 309 310 312 313 314 317 318 319 315 311 308 305 303 302 300 299 298 297 297 297 296 295 295 294 292 291 290 289 288 288 287 288 288 288 287
308 309 311 310 309 309 308 309 310 310 310 310 312 313 318 319 318 314 308 304 301 299 298 297 297 297 298 297 297 296 295 294 292 291 290 288 286 285 284 284 284 283 284 285
307 308 310 310 309 309 309 309 309 309 310 312 312 317 315 315 311 305 299 298 297 296 296 295 295 296 297 297 296 296 296 294 293 292 290 288 286 284 282 281 280 280 279 279